GFSMA_con_mucape_051.txt.gz
CAPE
0 0 0 0 0 0 0 0 0 0 0 0 0 0 0 0 0 0 0 0 0 0 13 0 17 7 5 0 0 0 0 0 0 0 0 0 0 0 0 0 0 0 0
0 0 1 2 1 0 0 0 0 0 0 0 0 0 0 0 0 0 0 0 0 20 0 0 1 1 1 0 0 0 0 0 0 0 0 0 0 0 0 0 0 0 0
25 19 32 41 14 10 0 4 9 0 0 0 0 0 0 0 0 0 0 0 0 0 0 0 0 0 0 0 0 0 0 0 0 0 0 0 0 0 0 0 0 0 0
78 48 60 58 23 14 29 20 9 0 0 0 0 0 0 0 0 0 0 0 0 0 0 0 0 0 0 0 0 0 0 0 0 0 0 0 0 0 0 0 0 0 0
125 96 65 44 16 17 31 34 2 0 0 0 0 0 0 0 0 0 0 0 0 0 0 0 0 0 0 0 0 0 0 0 3 10 12 13 13 6 0 0 0 0 0
86 82 64 14 10 31 29 15 0 0 0 0 0 0 0 0 0 0 0 0 0 0 0 0 0 0 0 0 0 0 0 0 1 4 4 5 7 7 11 10 8 7 15
81 51 50 41 17 19 9 0 0 0 0 0 0 0 0 0 0 0 0 0 0 0 0 0 0 0 0 0 0 0 0 0 0 1 2 2 1 1 3 7 16 22 29
10 1 2 2 4 11 4 0 0 0 0 0 0 0 0 0 0 0 0 0 0 0 0 0 0 0 0 0 0 0 0 0 0 0 0 0 2 4 8 14 21 28 34
9 12 14 2 4 2 0 0 0 0 0 0 0 0 0 0 0 0 0 0 0 0 0 0 0 0 0 0 0 0 0 0 0 0 1 5 9 19 27 31 34 41 42
23 39 55 1 0 0 0 0 0 0 3 0 3 0 0 0 0 0 0 0 0 0 0 0 0 0 0 0 0 0 0 0 0 0 1 8 14 28 40 43 43 38 36
37 95 53 0 0 0 0 0 0 4 0 2 0 0 0 0 0 0 0 0 0 0 0 0 0 0 0 0 0 0 0 0 0 0 0 3 16 29 42 44 40 44 52
39 60 27 3 3 0 0 0 0 0 18 6 0 0 0 0 0 0 0 0 0 0 0 0 0 0 0 0 0 0 0 0 0 0 0 0 0 4 9 14 25 37 43
60 34 12 11 4 6 0 11 3 0 1 1 0 0 0 0 0 0 0 0 0 0 0 0 4 0 0 0 0 0 0 0 0 0 0 0 0 0 6 14 21 28 37
57 24 20 8 1 17 4 19 20 2 0 0 0 0 0 0 0 0 0 0 0 0 0 0 0 0 0 0 0 0 0 0 0 0 0 0 0 0 0 3 18 25 33
45 27 18 32 24 39 40 23 10 0 0 0 0 0 0 0 0 0 0 0 0 0 0 0 0 5 1 0 0 0 0 0 0 0 0 0 0 0 0 0 0 22 30
77 21 4 63 43 28 31 31 16 2 2 0 0 0 0 0 0 0 0 3 14 0 0 3 0 0 0 0 0 0 0 0 0 0 0 0 0 0 0 0 0 0 0
63 52 44 55 33 22 0 3 3 1 0 0 0 0 0 0 0 0 2 8 9 23 0 2 0 0 0 0 0 0 0 0 0 0 0 0 0 0 0 0 0 0 0
57 71 67 22 19 22 20 0 0 0 0 0 0 0 0 0 0 0 0 0 0 0 0 0 0 0 0 0 0 0 0 0 0 0 0 0 0 0 0 0 0 0 0
53 43 29 32 11 0 0 0 0 0 0 0 0 0 0 0 0 0 0 0 0 0 0 0 0 0 0 0 0 0 0 0 0 0 0 0 0 0 0 0 0 0 0
21 6 16 8 0 1 0 0 0 0 0 0 0 0 0 0 0 2 1 0 0 1 0 0 0 0 0 0 0 0 0 0 0 0 0 0 0 0 0 0 0 0 0
13 2 0 1 0 0 0 0 0 0 0 0 0 0 0 0 0 3 5 7 2 1 0 0 0 0 0 0 0 0 0 0 0 0 0 0 0 0 0 0 0 0 0
2 3 4 0 0 0 0 0 0 0 0 0 0 0 0 0 0 5 2 2 7 0 0 0 0 0 0 0 0 0 0 0 0 0 0 0 0 0 0 0 0 0 0
29 12 0 0 0 0 0 0 0 0 0 0 0 0 0 0 0 2 4 1 1 0 0 0 0 0 0 0 0 0 0 0 0 0 0 0 0 0 0 0 0 0 0
3 0 0 0 0 0 0 0 0 0 0 0 0 0 0 0 0 5 11 6 2 0 0 0 0 0 0 0 0 0 0 0 0 0 0 0 0 0 0 0 0 0 0
0 0 0 0 0 0 0 0 0 0 0 0 0 0 0 0 0 5 14 16 4 0 0 0 0 0 0 0 0 0 0 0 0 0 0 0 0 0 0 0 0 0 0
0 0 0 0 0 0 0 0 0 0 0 0 0 0 0 0 0 12 8 11 0 0 0 0 0 0 0 0 0 0 0 0 0 0 0 0 0 0 0 0 0 0 0

GFSMA_con_mucape_054.txt.gz
CAPE
23 0 5 0 0 0 0 0 0 0 0 0 0 0 0 0 0 0 0 0 0 7 4 2 0 0 0 0 0 0 0 0 0 0 0 0 0 0 0 0 0 0 0
77 15 0 0 0 0 0 0 0 0 0 0 0 0 0 0 0 0 0 0 0 23 1 0 2 0 0 0 0 0 0 0 0 0 0 0 0 0 0 0 0 0 0
68 23 0 8 15 7 21 1 0 0 0 0 0 0 0 0 0 0 0 0 0 0 0 0 0 0 0 0 0 0 0 0 0 0 0 0 0 0 0 0 0 0 0
52 43 21 24 22 29 20 30 1 0 0 0 0 0 0 0 0 0 0 0 0 0 0 0 0 0 0 0 0 0 0 0 0 0 0 0 0 0 0 0 0 0 0
317 82 29 20 48 44 3 4 4 4 0 0 0 0 0 0 0 0 0 0 0 0 0 0 0 0 0 0 0 0 0 0 0 0 0 0 0 0 0 0 0 0 0
479 226 73 25 33 0 1 4 16 4 0 0 0 0 0 0 0 0 0 0 0 0 0 0 0 0 0 0 0 0 0 0 6 19 13 10 13 9 6 5 4 4 0
253 231 74 31 12 0 4 41 11 0 0 0 0 0 0 0 0 0 0 0 0 0 0 0 0 0 0 0 0 0 0 0 0 8 8 11 12 9 13 16 24 35 41
58 54 12 3 0 0 10 19 11 0 0 0 0 0 0 0 0 0 0 0 0 0 0 0 0 0 0 0 0 0 0 0 0 0 3 6 9 16 15 22 30 41 52
48 20 4 2 2 1 6 22 3 0 0 0 1 0 0 0 0 0 0 0 0 0 0 0 0 0 0 0 0 0 0 0 0 0 0 5 11 19 28 43 54 53 57
42 32 15 9 22 38 9 3 0 0 0 0 0 0 4 1 0 0 0 0 0 0 0 0 0 0 0 0 1 0 0 0 0 0 0 4 16 35 51 62 71 81 84
44 38 19 33 73 51 13 0 0 0 4 4 1 2 6 0 0 0 0 0 0 0 6 2 15 0 0 0 2 5 0 0 0 0 0 0 0 8 17 26 33 47 61
49 55 56 67 74 38 20 6 2 0 0 1 1 4 0 0 0 0 0 0 0 0 0 0 0 0 0 6 0 0 0 0 0 0 0 0 0 0 5 12 22 33 42
42 58 88 48 40 21 8 3 0 0 6 4 4 1 0 2 0 0 0 0 0 0 0 6 21 20 13 12 11 0 0 0 0 0 0 0 0 0 1 7 13 24 37
31 41 32 39 14 5 3 6 14 4 3 6 0 0 2 0 0 0 0 0 0 3 5 11 11 17 21 17 8 0 0 0 0 0 0 0 0 0 0 0 1 17 29
155 75 31 5 23 6 6 14 8 2 0 0 0 0 0 0 0 0 0 0 10 0 0 3 5 13 21 22 13 6 0 0 0 0 0 0 0 0 0 0 0 0 29
112 98 53 5 3 0 24 7 4 11 0 0 0 0 0 0 0 0 1 10 14 15 0 6 9 19 18 5 3 0 0 0 0 0 0 0 0 0 0 0 0 0 0
141 98 37 13 27 14 23 1 0 0 0 0 0 0 0 0 0 7 19 21 22 23 0 7 25 23 14 5 10 0 0 0 0 0 0 0 0 0 0 0 0 0 0
39 33 66 91 49 58 25 13 0 0 0 0 0 0 0 0 12 24 30 33 34 35 35 27 24 31 34 25 18 0 0 0 0 0 0 0 0 0 0 0 0 0 0
68 23 50 68 46 10 12 2 0 0 0 0 0 0 0 13 20 31 40 46 46 31 39 43 33 36 32 31 0 0 0 0 0 0 0 0 0 0 0 0 0 0 0
44 35 37 31 39 5 1 0 0 0 0 0 0 0 5 12 20 33 41 46 40 37 50 36 31 30 28 22 0 0 0 0 0 0 0 0 0 0 0 0 0 0 0
14 3 2 7 7 3 1 0 0 0 0 0 6 6 17 12 0 5 13 25 48 49 32 32 29 3 0 0 19 5 0 0 0 0 0 0 4 7 9 0 0 0 0
10 28 1 2 0 0 0 0 0 3 8 8 16 14 14 7 0 0 0 0 0 52 60 46 31 0 0 31 0 0 0 0 0 2 0 0 0 0 12 2 0 0 0
0 9 4 1 0 0 0 0 0 0 0 5 8 11 6 2 3 19 5 0 0 0 2 55 41 28 36 25 0 0 0 0 0 0 0 0 0 0 17 0 0 0 0
0 1 0 0 0 0 0 0 0 0 0 0 3 4 7 6 9 18 52 50 39 11 13 3 0 22 29 0 0 0 0 0 0 0 0 0 0 0 9 0 0 0 0
0 0 0 0 0 0 0 0 0 0 0 0 0 2 6 14 4 2 39 75 51 76 22 1 3 0 0 0 0 0 0 0 0 0 0 0 0 0 0 0 0 0 0
0 0 0 0 0 0 0 0 0 0 0 0 0 16 3 1 0 0 47 69 93 71 79 22 0 0 0 0 0 0 0 0 0 0 0 0 0 0 0 0 0 0 0

GFSMA_con_mucape_057.txt.gz
CAPE
325 221 184 24 9 0 0 0 0 0 0 0 0 0 0 0 0 0 0 0 0 5 3 13 0 0 0 0 0 0 0 0 0 0 0 0 0 0 0 0 0 0 0
390 245 166 38 2 0 0 0 0 0 0 0 0 0 0 0 0 0 0 0 0 19 1 0 3 0 0 0 0 0 0 0 0 0 0 0 0 0 0 0 0 0 0
305 200 77 59 8 0 5 4 0 0 0 0 0 0 0 0 0 0 0 0 0 0 0 0 0 0 0 0 0 0 0 0 0 0 0 0 0 0 0 0 0 0 0
304 146 106 48 15 16 32 3 5 0 0 0 0 0 0 0 0 0 0 0 0 0 0 0 0 0 0 0 0 0 0 0 0 0 0 0 0 0 0 0 0 0 0
204 167 88 92 95 21 8 4 0 3 1 0 0 0 0 0 0 0 0 0 0 0 0 0 0 0 0 0 0 0 0 0 0 0 0 0 0 0 0 0 0 0 0
692 298 186 216 80 0 0 0 0 4 6 1 0 0 0 0 0 0 0 0 0 0 0 0 0 0 0 0 0 0 0 0 0 0 13 12 16 14 10 13 16 17 18
609 755 537 423 52 0 3 0 0 4 18 1 0 0 0 0 0 0 0 0 0 0 0 0 0 0 0 0 0 0 0 0 0 0 0 0 13 17 21 29 29 35 43
484 525 624 433 62 1 2 0 6 4 23 0 0 0 0 0 0 0 0 0 0 0 0 0 0 0 0 0 0 0 0 0 0 0 0 0 0 24 32 41 53 62 75
91 71 85 159 44 22 0 4 4 6 29 1 0 0 0 0 0 1 0 0 0 0 0 0 0 0 0 0 0 0 0 0 0 0 0 0 0 17 31 49 69 81 87
11 22 35 20 171 86 3 20 50 43 18 0 0 0 0 0 0 0 0 0 0 0 0 0 0 6 13 8 6 0 0 0 0 0 0 0 0 4 11 21 34 40 43
21 75 30 35 99 12 38 73 48 22 19 0 0 6 1 8 0 0 0 0 0 0 1 1 9 11 0 3 4 1 0 0 0 0 0 0 0 0 1 4 9 19 29
106 61 45 42 44 36 21 30 33 28 9 0 3 0 0 0 5 0 0 0 0 0 0 2 2 2 5 4 2 0 0 0 0 0 0 0 0 0 0 4 11 21 33
199 37 21 51 31 59 4 23 27 32 0 2 2 1 1 0 0 0 0 0 0 0 0 1 5 7 4 7 5 0 0 0 0 0 0 0 0 0 0 3 7 18 30
241 30 56 56 0 0 4 22 16 10 17 2 13 1 0 0 0 0 0 0 0 0 2 2 2 3 1 6 4 0 0 0 0 0 0 0 0 0 0 0 0 13 25
105 49 54 112 35 3 21 0 0 19 18 8 17 1 0 0 0 0 0 0 0 0 0 0 1 4 3 10 12 4 0 2 0 0 0 0 0 0 0 0 0 0 16
63 39 24 52 31 7 2 0 8 5 13 5 0 2 2 0 0 0 0 3 10 9 0 1 2 21 14 8 3 0 0 9 0 0 0 0 0 0 0 0 0 0 0
52 26 57 68 17 4 1 5 0 20 16 2 0 0 0 0 0 0 30 21 14 16 22 9 9 29 64 62 26 5 9 22 31 20 3 0 0 0 0 0 0 0 0
173 26 44 23 0 61 9 6 1 0 15 0 0 0 0 0 0 35 41 39 33 33 47 42 31 44 71 71 80 59 3 0 14 2 10 0 0 0 0 0 0 0 0
66 40 44 55 20 9 4 9 0 0 1 2 0 0 0 0 5 43 48 50 60 28 73 82 61 63 73 70 77 73 29 42 11 11 6 0 0 0 0 0 0 0 0
72 53 38 42 11 24 30 3 12 8 2 0 0 0 25 14 37 45 50 73 60 77 83 66 87 84 85 52 93 47 58 65 40 0 0 0 2 1 3 0 1 0 0
56 23 10 9 8 13 0 7 4 0 0 0 0 20 34 23 6 12 13 28 59 69 68 68 78 80 68 50 48 58 61 66 37 5 13 14 22 9 8 17 26 44 25
1 0 0 0 8 4 7 1 0 0 0 0 5 3 7 4 8 5 3 1 0 54 70 87 83 88 93 89 87 81 63 33 22 4 29 14 10 7 12 15 3 0 0
0 0 0 3 6 0 0 0 0 0 0 0 0 3 3 2 3 19 17 10 7 11 6 43 76 111 74 108 86 21 24 21 0 0 26 1 30 29 8 1 18 11 0
0 0 0 0 0 0 0 0 0 0 0 0 0 1 6 11 24 24 48 65 81 59 58 14 2 27 109 147 72 41 12 0 0 0 31 2 35 29 24 18 13 23 0
0 0 0 0 0 0 0 0 0 0 0 0 0 0 3 13 3 0 8 34 57 56 37 18 27 10 10 0 0 2 3 0 0 0 36 44 28 0 0 0 35 0 0
0 0 0 0 0 0 0 0 0 0 0 0 0 0 0 0 0 0 8 49 58 60 96 92 52 16 3 0 0 0 0 0 0 0 1 56 0 0 0 0 1 55 7

GFSMA_con_mucape_060.txt.gz
CAPE
165 76 41 4 0 0 0 0 0 0 0 0 0 0 0 0 0 0 0 0 0 7 4 6 0 0 0 0 0 0 0 0 0 0 0 0 0 0 0 0 0 0 0
355 121 172 59 19 0 0 0 0 0 0 0 0 0 0 0 0 0 0 0 0 2 1 6 3 2 0 0 0 0 0 0 0 0 0 0 0 0 0 0 0 0 0
341 220 189 195 52 0 0 0 0 0 0 0 0 0 0 0 0 0 0 0 0 0 0 0 0 0 0 0 0 0 0 0 0 0 0 0 0 0 0 0 0 0 0
309 280 136 150 44 6 0 1 7 3 0 0 0 0 0 0 0 0 0 0 0 0 1 0 0 0 0 0 0 0 0 0 0 0 0 0 0 0 0 0 0 0 0
295 220 208 95 122 2 0 8 3 5 0 0 0 0 0 0 0 0 0 0 0 0 0 1 0 0 0 0 0 0 0 0 0 0 0 0 0 0 0 0 0 0 0
179 243 170 165 132 14 12 9 12 12 4 3 5 0 0 0 0 0 0 0 0 0 0 0 0 0 0 0 0 0 0 0 0 0 0 12 14 13 14 16 16 22 22
417 333 197 204 140 50 25 5 10 0 3 6 14 9 0 0 0 0 0 0 0 0 0 0 0 0 0 0 0 0 0 0 0 0 0 5 13 24 29 35 43 46 58
419 359 344 301 181 63 38 0 14 14 8 7 9 12 0 1 1 0 0 0 0 0 0 0 0 0 0 0 0 0 0 0 0 0 0 0 10 19 24 28 35 43 52
419 391 477 403 139 121 40 1 6 26 32 10 8 8 0 0 0 0 6 1 0 0 0 0 0 0 0 0 0 0 0 0 0 0 0 0 0 3 11 18 22 25 28
294 198 189 100 84 15 11 0 15 6 43 15 3 12 0 0 0 0 3 1 0 0 0 0 0 0 0 0 0 0 0 0 0 0 0 0 0 0 1 8 6 7 14
170 39 14 1 17 7 20 39 7 2 21 21 22 10 0 1 1 0 0 2 0 0 0 0 0 0 0 0 0 0 0 0 0 0 0 0 0 0 0 5 6 9 14
131 13 2 1 41 36 32 37 19 30 9 0 2 22 2 0 0 0 0 0 0 0 0 0 0 0 0 0 0 0 0 0 0 0 0 0 0 0 0 3 6 12 18
263 193 52 37 21 14 22 16 8 18 0 0 2 0 0 0 10 0 0 0 0 0 0 0 0 0 0 0 0 0 0 0 0 0 0 0 0 0 0 0 1 9 14
244 186 89 52 30 25 63 10 4 8 0 0 0 7 9 0 2 8 3 0 0 0 0 0 0 0 0 0 0 0 0 0 0 0 0 0 0 0 0 0 0 7 11
442 513 141 90 34 86 23 21 1 0 0 0 0 0 3 7 0 0 0 0 0 0 0 0 0 0 0 0 0 0 0 0 0 0 0 0 0 0 0 0 0 0 7
626 455 170 97 31 83 47 1 4 12 7 2 0 7 14 9 0 0 0 0 0 0 0 0 0 0 0 0 0 0 0 0 0 0 0 0 0 0 0 0 0 0 0
361 408 47 9 76 49 31 0 1 5 15 8 0 0 8 1 0 0 0 0 0 0 0 0 0 0 0 0 0 0 3 2 0 0 0 0 0 0 0 0 0 0 0
608 234 70 134 69 18 8 14 10 25 13 10 2 0 0 3 0 0 0 0 0 1 6 0 0 0 0 0 1 0 2 7 1 0 0 0 0 0 0 0 0 0 0
354 290 150 119 41 42 25 21 41 13 9 9 10 11 3 0 0 0 3 4 5 7 13 21 4 7 10 15 16 8 0 1 0 0 0 0 10 5 1 2 0 1 1
209 137 62 34 45 42 10 16 13 13 9 0 6 4 0 0 2 6 3 6 10 15 21 26 20 16 11 11 13 16 4 2 0 0 0 0 0 0 37 27 9 11 22
78 56 25 11 6 9 4 11 2 8 0 1 1 0 0 7 12 17 12 8 9 10 7 6 1 0 2 15 21 12 11 5 0 0 0 0 0 0 0 10 11 15 25
3 0 0 0 0 0 0 10 12 9 0 0 0 0 0 0 0 0 0 2 4 10 11 22 22 26 13 11 13 18 9 4 0 0 0 0 0 0 0 0 5 11 3
0 0 0 0 0 0 3 2 1 0 0 0 0 0 0 0 0 0 0 0 0 0 0 13 24 13 17 12 24 20 4 3 3 0 0 0 0 0 0 1 7 10 24
0 0 0 0 0 0 0 0 0 0 0 0 0 0 0 0 0 0 0 0 0 0 0 1 18 13 17 15 18 19 13 0 0 0 0 0 0 0 0 0 0 4 17
0 0 0 0 0 0 0 0 0 0 0 0 0 0 0 0 0 0 0 0 0 0 0 1 0 9 11 14 17 8 1 1 0 0 0 0 0 0 0 0 0 6 19
0 0 0 0 0 0 0 0 0 0 0 0 0 0 0 0 0 0 0 0 0 0 0 0 0 0 0 13 29 35 15 0 0 0 0 0 0 0 0 0 0 0 0

GFSMA_con_mucape_063.txt.gz
CAPE
0 4 0 0 0 1 0 0 0 0 0 0 0 0 0 0 0 0 0 0 2 14 11 9 0 0 0 0 0 0 0 0 0 0 0 0 0 0 0 0 0 0 0
31 13 0 0 0 0 0 0 0 0 0 0 0 0 0 0 0 0 0 0 0 3 1 2 2 2 1 0 0 0 0 0 0 0 0 0 0 0 0 0 0 0 0
70 35 19 31 3 0 0 0 0 0 0 0 0 0 0 0 0 0 0 0 0 0 0 0 0 0 0 0 0 0 0 0 0 0 0 0 0 0 0 0 0 0 0
164 80 99 61 17 4 0 0 0 0 0 0 0 0 0 0 0 0 0 0 0 0 0 0 0 0 0 0 0 0 0 0 0 0 0 0 3 9 8 10 9 1 12
161 80 47 23 14 4 0 0 0 0 0 0 0 0 0 0 0 0 0 0 0 0 0 0 0 0 0 0 0 0 0 0 0 0 0 0 2 4 6 8 12 12 15
144 81 61 90 19 5 1 7 0 6 2 3 0 1 0 0 0 0 0 0 0 0 0 0 0 0 0 0 0 0 0 0 0 0 0 0 0 1 5 9 14 25 32
96 88 119 88 43 11 7 12 0 16 25 25 5 2 2 2 0 0 0 0 0 0 0 0 0 0 0 0 0 0 0 0 0 0 0 0 0 1 10 17 24 28 29
208 114 84 109 115 52 47 42 31 5 20 36 28 19 0 3 0 0 0 0 0 2 0 0 0 0 0 0 0 0 0 0 0 0 0 0 0 0 0 0 17 25 27
161 274 253 161 83 98 53 42 29 1 0 22 25 29 14 2 0 0 0 0 2 0 2 0 0 0 0 0 0 0 0 0 0 0 0 0 0 0 0 0 3 13 13
315 326 299 268 170 152 126 78 19 26 14 6 2 14 13 18 0 0 0 4 2 0 2 0 0 0 0 0 0 0 0 0 0 0 0 0 0 0 0 0 0 4 9
258 291 283 261 239 189 102 31 40 31 35 22 0 3 2 0 0 0 0 0 0 0 0 0 0 0 0 0 0 0 0 0 0 0 0 0 0 0 0 0 0 4 6
215 248 269 210 181 92 19 23 41 50 41 29 7 0 2 0 0 0 0 0 0 1 1 0 0 0 0 0 0 0 0 0 0 0 0 0 0 0 0 0 3 3 8
263 296 190 92 44 23 17 50 69 51 42 42 24 0 0 0 0 0 0 6 0 0 0 0 0 0 0 0 0 0 0 0 0 0 0 0 0 0 0 0 0 0 4
178 204 171 119 57 20 26 27 36 30 53 35 29 2 0 0 2 8 11 6 4 0 0 0 0 0 0 0 0 0 0 0 0 0 0 0 0 0 0 0 0 0 0
179 263 233 124 151 91 26 23 22 27 12 0 1 14 1 5 9 7 6 9 2 0 0 0 0 0 0 0 0 0 0 0 0 0 0 0 0 0 0 0 0 0 0
242 306 293 348 466 62 159 7 29 21 0 0 1 9 6 12 0 1 3 4 0 0 0 0 0 0 0 0 0 0 0 0 0 0 0 0 0 0 0 0 0 0 0
198 344 422 486 367 90 36 18 19 6 6 18 2 37 31 14 6 0 0 0 0 0 0 0 0 0 0 0 0 0 1 4 0 0 0 0 0 0 0 0 0 0 0
193 247 210 265 73 8 41 16 18 25 17 26 1 24 19 3 9 3 0 0 0 6 2 0 0 0 0 0 5 16 13 14 16 12 3 0 0 0 0 0 0 0 0
186 136 169 94 39 81 57 17 42 19 6 33 20 13 4 0 0 1 0 1 4 2 8 14 1 1 6 22 36 40 36 18 10 21 20 0 3 0 0 0 0 0 0
152 138 51 61 26 51 11 13 0 8 10 24 20 0 0 1 0 0 4 6 7 11 15 17 15 15 19 14 22 22 26 35 8 8 3 3 0 0 0 3 4 3 11
47 28 23 5 11 9 11 8 8 12 10 5 6 1 0 0 0 1 1 1 0 0 0 0 0 1 0 1 9 15 24 19 10 6 6 13 0 1 0 0 0 7 29
40 0 0 6 10 3 0 0 0 0 4 6 0 0 0 0 0 0 0 0 0 0 0 0 0 0 0 7 15 29 20 24 12 5 2 15 0 0 0 0 0 0 0
0 0 0 0 0 0 0 0 0 0 0 0 0 0 0 0 0 0 0 0 0 0 0 0 0 0 0 1 9 17 16 12 17 5 3 0 0 0 0 0 0 0 0
0 0 0 0 0 0 0 0 0 0 0 0 0 0 0 0 0 0 0 0 0 0 0 0 0 0 0 0 5 15 9 16 13 11 5 0 0 0 0 0 0 2 0
0 0 0 0 0 0 0 0 0 0 0 0 0 0 0 0 0 0 0 0 0 0 0 0 0 0 0 0 0 0 19 22 11 1 0 0 0 0 0 0 0 0 0
0 0 0 0 0 0 0 0 0 0 0 0 0 0 0 0 0 0 0 0 0 0 0 0 0 0 0 0 0 3 8 20 23 1 2 0 0 0 0 0 0 0 0

GFSMA_con_mucape_066.txt.gz
CAPE
0 0 0 0 0 1 0 0 0 0 0 0 0 0 0 0 0 0 0 0 0 2 4 6 8 0 0 0 0 0 0 0 0 0 0 0 0 0 0 0 0 0 0
0 0 0 0 0 0 0 0 0 0 0 0 0 0 0 0 0 0 0 0 0 0 8 5 0 0 0 0 0 0 0 0 0 0 0 0 0 0 0 0 0 0 0
0 0 0 0 0 0 0 0 0 0 0 0 0 0 0 0 0 0 0 0 0 0 11 3 0 0 3 0 0 0 0 0 0 0 0 0 0 0 0 0 0 0 0
14 0 0 2 1 6 0 0 0 0 0 0 0 0 0 0 0 0 0 0 0 0 0 10 0 0 0 0 0 0 0 0 0 0 0 0 0 4 4 3 0 0 0
48 21 66 63 30 6 0 0 0 0 0 0 0 0 0 0 0 0 0 0 0 0 0 0 0 0 0 0 0 0 0 0 0 0 0 0 0 1 1 2 3 4 8
111 55 82 75 38 16 1 0 0 0 0 0 0 0 0 0 0 0 0 0 0 0 0 0 0 0 0 0 0 0 0 0 0 0 0 0 0 0 0 0 2 8 8
104 93 56 70 29 3 2 0 0 0 0 0 0 0 1 0 0 0 0 0 0 0 0 0 0 0 0 0 0 0 0 0 0 0 0 0 0 0 0 0 0 0 0
24 108 76 42 36 20 23 7 2 4 1 1 3 4 8 1 0 0 0 0 0 0 0 0 0 0 0 0 0 0 0 0 0 0 0 0 0 0 0 0 0 0 0
43 50 69 48 49 34 28 15 26 25 19 28 6 13 7 0 1 0 2 1 0 0 0 1 0 0 0 0 0 0 0 0 0 0 0 0 0 0 0 0 0 0 0
92 95 64 53 11 45 57 43 38 46 29 26 17 26 6 2 4 0 0 0 0 0 8 1 9 2 0 0 0 0 0 0 0 0 0 0 0 0 0 0 0 0 0
44 75 118 157 132 111 22 41 48 65 43 28 24 32 38 6 6 3 2 0 0 3 7 5 9 7 4 0 0 0 0 0 0 0 0 0 0 0 0 0 0 0 1
26 78 99 141 200 192 148 94 93 78 27 7 30 42 52 5 7 3 0 0 0 0 10 2 8 1 1 3 0 0 0 0 0 0 0 0 0 0 0 0 0 0 0
39 111 204 227 249 241 168 108 64 26 11 27 66 20 9 1 0 0 0 0 0 0 6 2 3 0 0 0 0 0 0 0 0 0 0 0 0 0 0 0 0 0 0
20 60 74 98 133 183 124 78 71 15 42 77 36 28 13 0 0 0 0 10 0 0 0 0 1 0 0 0 0 0 0 0 0 0 0 0 0 0 0 0 0 0 0
44 32 62 85 109 87 52 43 26 19 40 32 4 1 0 3 5 10 6 1 0 0 0 0 0 0 0 0 0 0 0 0 0 0 0 0 3 2 0 0 0 0 0
84 76 102 136 163 138 91 46 13 4 23 28 14 5 2 15 9 14 11 1 0 0 0 0 0 0 0 0 0 0 0 0 0 0 0 0 0 8 4 0 1 0 0
134 60 19 145 162 114 132 122 132 9 32 17 3 0 5 6 0 8 6 0 0 0 0 0 0 0 0 0 0 0 0 0 0 0 3 1 2 0 10 7 14 19 0
50 90 65 115 319 243 128 163 1 34 25 14 6 9 19 20 14 10 9 0 0 0 0 0 0 0 0 0 0 3 7 16 23 30 33 28 9 1 0 7 0 9 0
57 129 135 238 222 123 308 18 41 41 25 10 16 17 9 27 9 3 0 0 0 0 0 0 0 0 0 0 0 3 10 13 25 27 25 13 20 0 0 0 0 0 0
155 231 203 265 114 134 77 8 26 29 10 16 7 25 16 19 6 0 0 0 0 0 0 0 0 0 0 0 0 0 0 0 6 24 29 15 10 3 1 2 1 0 11
202 225 175 219 96 54 28 79 16 10 25 20 16 24 5 5 1 0 0 0 0 0 0 0 0 0 0 0 0 0 0 0 8 13 4 23 28 6 0 1 1 54 46
126 110 143 91 58 6 16 12 11 13 6 6 3 0 4 0 0 0 0 0 0 0 0 0 0 0 0 0 0 0 0 0 0 0 22 14 24 32 1 3 0 0 0
90 58 21 5 5 5 2 1 1 0 0 0 1 0 0 0 0 0 0 0 0 0 0 0 0 0 0 0 0 0 0 0 0 12 21 1 17 25 19 0 0 0 0
27 0 0 1 0 0 0 0 0 0 0 0 0 0 0 0 0 0 0 0 0 0 0 0 0 0 0 0 0 0 0 0 0 0 15 17 0 17 1 0 1 0 3
0 0 0 0 0 0 0 0 0 0 0 0 0 0 0 0 0 0 0 0 0 0 0 0 0 0 0 0 0 0 0 0 0 0 22 4 0 17 0 0 0 0 0
0 0 0 0 0 0 0 0 0 0 0 0 0 0 0 0 0 0 0 0 0 0 0 0 0 0 0 0 0 0 0 0 0 0 0 6 5 1 0 1 0 0 0

GFSMA_con_mucape_069.txt.gz
CAPE
2 1 0 0 0 0 0 0 0 0 0 0 0 0 0 0 0 0 0 0 7 6 4 4 0 0 0 0 0 0 0 0 0 0 0 0 0 0 0 0 0 0 0
2 4 1 0 0 0 0 0 0 0 0 0 0 0 0 0 0 0 0 0 0 1 0 1 0 0 0 0 0 0 0 0 0 0 0 0 0 0 0 0 0 0 0
3 2 1 0 0 0 2 0 0 0 0 0 0 0 0 0 0 0 0 0 0 0 4 8 0 0 0 0 0 0 0 0 0 0 0 0 0 0 0 0 0 0 0
0 0 0 0 0 0 0 0 0 0 0 0 0 0 0 0 0 0 0 0 0 0 0 15 28 3 0 0 0 0 0 0 0 0 0 0 0 0 0 0 0 0 0
0 0 0 0 0 6 1 0 0 0 0 0 0 0 0 0 0 0 0 0 0 0 0 0 0 0 0 0 0 0 0 0 0 0 0 0 0 0 0 0 0 0 0
4 2 10 22 16 13 2 7 11 0 0 0 0 0 0 0 0 0 0 0 0 0 0 0 0 0 0 0 0 0 0 0 0 0 0 0 0 0 0 0 0 0 0
55 29 85 99 85 55 48 13 12 8 0 0 0 0 0 0 0 0 0 0 0 0 0 0 0 0 0 0 0 0 0 0 0 0 0 0 0 0 0 0 0 0 0
83 137 83 105 73 47 26 45 10 0 1 2 6 4 1 0 0 1 2 0 0 6 0 0 0 0 0 0 0 0 0 0 0 0 0 0 0 0 0 0 0 0 0
58 44 116 71 59 52 42 22 15 18 27 20 18 24 27 0 9 4 8 4 6 5 2 1 0 6 0 0 0 0 0 0 0 0 0 0 0 0 0 0 0 0 0
2 44 50 89 89 41 58 54 41 30 35 46 37 26 35 29 23 0 13 18 23 11 3 0 3 14 10 2 4 1 0 0 0 0 0 1 0 0 0 0 0 0 0
0 13 54 39 49 39 61 49 53 50 46 44 45 50 41 22 28 14 0 12 4 9 5 3 0 13 11 16 8 9 6 3 0 0 14 24 19 5 0 0 0 0 0
0 0 12 58 68 77 87 62 56 58 45 45 52 37 34 19 24 1 3 7 0 4 6 4 6 13 5 14 15 7 10 3 0 0 47 48 45 38 24 2 0 0 0
0 0 4 22 57 84 96 140 148 171 115 76 85 50 36 33 8 3 0 0 0 0 6 20 5 1 0 11 7 0 0 0 0 0 27 71 81 63 60 42 31 16 3
0 0 21 26 16 35 76 137 160 111 113 97 80 63 41 48 11 7 1 0 0 0 2 15 2 0 0 0 0 0 0 0 0 0 2 35 69 93 105 72 54 52 13
1 19 7 25 43 77 59 50 74 83 100 76 32 56 16 6 0 0 8 15 38 18 0 0 0 0 0 0 0 0 0 0 0 0 0 1 30 73 86 98 84 36 5
34 50 92 36 37 36 47 72 103 24 8 31 49 13 34 7 2 6 17 19 0 0 0 0 0 0 0 0 0 0 0 0 0 0 0 0 0 20 52 80 92 21 11
92 48 50 11 40 87 86 117 105 35 46 4 0 30 51 10 0 3 4 5 2 2 1 0 0 0 0 0 0 0 0 0 0 0 0 1 4 9 16 18 27 25 17
83 21 99 0 33 48 60 166 152 81 63 68 26 21 26 20 10 8 6 5 6 2 0 0 0 0 0 0 0 0 0 0 0 0 0 0 2 11 27 7 12 4 10
106 8 1 34 188 88 84 207 227 97 55 21 2 17 9 6 2 2 1 9 2 1 0 0 0 0 0 0 0 0 0 0 0 0 0 0 0 3 13 19 15 10 29
184 51 90 61 67 81 141 275 147 69 14 25 16 13 7 9 15 0 8 1 0 0 0 0 0 0 0 0 0 0 0 0 0 0 0 0 0 1 9 9 13 14 2
201 206 227 105 91 244 181 259 75 17 15 21 16 3 5 22 6 13 9 1 0 0 0 0 0 0 0 0 0 0 0 0 0 0 0 0 0 0 8 12 31 25 13
128 116 163 194 272 213 148 98 37 51 25 40 7 3 12 4 0 6 0 0 0 0 0 0 0 0 0 0 0 0 0 0 0 0 0 0 0 0 0 2 8 6 19
225 161 254 153 126 88 137 40 9 7 9 12 13 10 3 0 0 0 0 0 0 0 0 0 0 0 0 0 0 0 0 0 0 0 0 0 0 0 0 0 4 4 6
214 187 101 78 108 66 29 2 6 6 7 12 2 0 0 0 0 0 0 0 0 0 0 0 0 0 0 0 0 0 0 0 0 0 0 0 0 0 0 0 0 1 0
180 76 72 69 35 9 5 2 0 4 1 0 0 0 0 0 0 0 0 0 0 0 0 0 0 0 0 0 0 0 0 0 0 0 0 0 0 0 0 0 0 1 0
64 65 24 7 6 0 2 1 0 0 0 0 0 0 0 0 0 0 0 0 0 0 0 0 0 0 0 0 0 0 0 0 0 0 0 0 0 0 0 0 0 0 0

GFSMA_con_mucape_075.txt.gz
CAPE
0 0 0 0 0 0 0 0 0 0 0 0 0 0 0 0 0 0 0 5 16 14 9 12 8 0 0 0 0 0 0 0 0 0 0 0 0 0 0 0 0 0 0
1 0 0 0 0 0 0 0 0 0 0 0 0 0 0 0 0 0 1 3 5 19 23 9 6 0 0 0 0 0 0 0 0 0 0 0 0 0 0 0 0 0 0
0 12 2 0 0 0 0 0 0 0 0 0 0 0 0 0 0 0 0 2 3 8 16 22 7 4 0 0 0 0 0 0 0 0 0 0 0 0 0 0 0 0 0
23 0 0 1 0 1 0 0 0 0 0 0 0 0 0 0 0 0 0 0 2 3 3 18 16 1 0 0 0 0 0 0 0 0 0 0 0 0 0 0 0 0 0
16 16 2 10 5 0 6 15 12 13 1 0 0 0 0 0 0 0 0 0 0 0 1 0 7 13 20 13 0 0 0 0 0 0 0 0 0 0 0 0 0 0 0
24 13 10 28 8 137 6 6 26 49 23 1 0 0 0 0 0 0 0 0 1 2 0 0 0 0 0 53 0 0 0 0 0 0 0 0 0 0 0 0 0 0 0
18 32 11 8 8 17 20 9 23 31 35 29 6 0 0 0 0 0 0 2 8 8 4 8 1 1 6 4 0 0 0 0 0 0 0 0 0 0 0 0 0 0 0
4 12 8 34 12 54 20 15 42 33 35 25 16 20 2 0 2 3 4 4 8 6 11 3 2 13 0 4 2 0 5 3 3 6 2 0 0 0 0 0 0 0 0
3 1 34 77 74 59 59 53 58 50 34 27 33 27 35 27 19 10 26 9 10 18 15 5 8 9 7 5 1 3 0 3 3 1 7 106 56 12 0 0 0 0 0
17 39 52 59 125 103 112 92 103 81 38 21 24 39 29 28 25 21 9 7 10 18 7 2 1 8 5 0 1 3 14 5 7 7 5 16 12 17 63 44 1 0 0
1 36 68 148 172 144 187 116 99 70 52 22 22 11 11 21 20 29 7 0 14 3 1 10 13 5 1 0 4 3 5 6 14 4 0 8 8 13 13 81 81 70 51
5 49 68 126 191 254 253 236 138 87 74 60 26 39 45 29 24 32 9 8 32 9 0 1 3 6 0 2 4 5 5 5 7 0 6 2 2 8 4 39 64 106 111
6 27 23 41 77 113 157 173 199 78 69 46 63 68 62 52 64 70 51 29 18 3 0 1 5 0 3 7 9 21 7 6 0 0 0 0 0 0 1 15 36 74 88
1 16 19 22 30 50 85 133 151 138 106 43 18 15 29 29 42 77 68 43 22 16 5 7 0 0 1 5 10 13 0 6 0 0 0 0 0 0 0 6 18 20 12
0 0 0 3 5 18 47 83 99 102 76 18 16 6 6 3 58 74 82 38 83 18 0 0 0 0 0 0 1 0 0 0 0 0 0 0 0 0 0 0 0 3 18
0 0 0 0 0 3 40 71 70 67 59 39 32 4 1 29 64 56 127 86 6 6 5 0 0 0 6 3 0 0 0 0 0 0 0 0 0 0 0 0 0 0 0
0 0 0 0 0 0 2 16 53 57 46 61 40 57 70 79 79 33 15 1 10 3 7 2 10 2 9 1 0 0 0 0 0 0 0 0 0 0 0 0 0 0 0
0 0 0 0 0 0 7 31 33 48 39 25 15 69 64 81 61 47 3 3 13 0 3 0 8 3 0 2 0 0 0 0 0 0 0 0 0 0 0 0 0 0 0
0 0 0 0 0 41 22 38 66 0 2 9 46 72 54 90 33 33 14 15 0 4 2 6 10 3 0 0 0 0 0 0 0 0 0 0 0 0 0 0 0 0 0
0 0 0 0 9 11 24 24 50 0 60 96 64 114 84 40 44 33 12 12 0 4 0 0 3 9 1 1 0 0 0 0 0 0 0 0 0 0 0 0 0 0 0
14 11 6 0 17 2 18 57 60 20 15 16 22 28 103 20 66 28 21 18 0 1 1 0 6 3 1 0 0 0 0 0 0 0 0 0 0 0 0 0 0 0 0
22 33 28 24 17 8 0 45 97 116 120 81 21 54 26 89 66 54 21 0 7 0 3 4 8 4 0 0 0 0 0 0 0 0 0 0 0 0 0 0 0 0 0
36 47 47 52 72 57 60 95 149 154 113 78 86 109 31 58 49 19 5 12 6 7 7 2 0 0 0 0 0 0 0 0 0 0 0 0 0 0 0 0 0 0 0
195 184 134 118 74 128 186 130 98 72 101 81 95 104 94 34 32 14 8 2 6 10 7 1 0 0 0 0 0 0 0 0 0 0 0 0 0 0 0 0 0 0 0
179 126 103 120 102 221 103 89 82 53 57 26 29 23 46 15 3 6 6 6 8 5 0 0 0 0 0 0 0 0 0 0 0 0 0 0 0 0 0 0 6 0 0
88 152 175 210 272 113 21 80 13 67 39 25 26 11 8 8 2 6 3 0 0 0 0 0 0 0 0 0 0 0 0 0 0 0 0 0 0 0 0 0 0 13 6

GFSMA_con_mucape_078.txt.gz
CAPE
73 65 181 217 130 89 37 6 7 0 0 0 0 0 0 0 0 11 12 21 25 21 15 11 6 0 0 0 0 0 0 0 0 0 0 0 0 0 0 0 0 0 0
50 33 23 70 114 190 89 42 24 0 0 0 0 0 0 0 3 8 7 15 18 20 19 11 7 2 0 0 0 0 0 0 0 0 0 0 0 0 0 0 0 0 0
45 4 4 5 13 66 41 32 7 0 0 0 0 0 0 0 2 6 6 6 4 9 18 19 8 4 0 0 0 0 0 0 0 0 0 0 0 0 0 0 0 0 0
26 16 3 0 0 2 7 6 4 0 0 0 0 0 0 0 0 1 4 5 4 1 5 22 22 15 0 0 0 0 0 0 0 0 0 0 0 0 0 0 0 0 0
18 27 14 9 0 0 0 0 0 0 0 0 0 0 0 0 0 0 0 0 2 3 2 4 12 13 32 0 0 0 0 0 0 0 0 0 0 0 0 0 0 0 0
78 43 2 2 0 0 0 0 0 0 0 0 0 0 0 0 0 0 0 0 0 0 0 0 0 0 0 52 0 0 0 0 0 0 0 0 0 0 0 0 0 0 0
17 39 56 24 3 2 2 9 9 7 0 3 0 0 0 0 0 0 0 0 0 0 0 1 2 2 13 0 76 0 0 0 0 0 0 0 0 0 0 0 0 0 0
7 12 36 54 47 52 10 9 7 9 29 26 13 10 20 6 7 0 0 2 5 10 4 0 0 2 5 9 30 68 17 0 1 0 0 0 0 0 0 0 0 0 0
7 6 17 44 22 61 45 55 15 11 62 21 13 53 33 52 37 17 12 6 15 2 3 0 0 5 2 0 0 2 6 4 2 0 1 97 79 46 45 23 0 0 0
11 34 15 95 91 86 115 152 93 145 166 129 29 29 60 38 39 159 3 14 17 16 25 9 2 1 0 0 4 0 0 0 5 3 0 0 5 10 39 71 82 53 0
29 11 35 45 82 195 177 234 203 165 194 225 186 148 38 7 14 20 144 122 0 1 6 3 2 0 0 1 16 0 0 1 1 0 0 5 1 0 0 4 38 65 91
3 8 13 106 126 256 233 329 382 336 296 230 292 157 71 28 103 128 138 175 83 12 6 10 3 0 0 1 2 0 0 3 2 3 1 0 0 0 0 0 0 10 33
0 0 1 31 136 219 323 315 407 425 303 280 279 246 170 179 251 282 152 27 7 47 2 0 6 0 0 0 0 3 1 1 2 1 0 1 0 0 0 0 0 0 0
5 6 2 22 99 167 258 228 401 361 355 339 300 285 260 308 272 174 43 32 1 20 23 14 4 0 0 0 0 0 0 0 0 0 0 0 0 0 0 0 0 0 0
24 30 115 116 196 187 138 147 191 240 257 298 332 411 422 222 324 146 26 12 67 58 39 0 0 0 0 0 0 0 0 0 0 0 0 0 0 0 0 0 0 0 0
53 91 87 153 138 73 102 106 136 149 175 401 414 179 171 136 30 15 15 38 64 56 41 5 0 0 0 0 0 1 0 0 0 0 0 0 0 0 0 0 0 0 0
24 23 32 43 35 38 60 136 122 131 156 223 127 126 60 58 29 19 52 85 73 68 16 3 6 1 10 10 3 3 0 0 0 0 0 0 0 0 0 0 0 0 0
38 6 10 3 16 16 60 115 99 75 76 69 51 0 1 60 43 64 46 53 43 57 2 14 4 0 0 0 4 9 0 0 0 0 0 0 0 0 0 0 0 0 0
26 22 26 88 63 76 60 85 84 17 17 13 13 4 0 24 37 70 51 34 24 23 6 3 0 0 0 4 6 8 3 0 0 0 0 0 0 0 0 0 0 0 0
1 5 23 34 52 18 4 19 58 81 72 5 17 1 0 38 41 57 49 27 12 9 14 3 9 1 1 0 4 11 1 0 0 0 0 0 0 0 0 0 0 0 0
0 0 3 7 36 21 15 6 15 12 4 16 18 16 25 23 15 13 47 106 50 6 0 13 12 4 0 0 3 7 5 1 0 0 0 0 0 0 0 0 0 0 0
0 3 6 16 54 0 0 0 4 4 15 28 27 10 48 50 52 15 49 16 37 8 4 1 4 1 0 5 4 9 0 0 0 0 0 0 0 0 0 0 0 0 0
40 13 30 9 2 12 7 5 13 23 0 1 22 54 48 82 78 77 69 44 23 11 2 5 1 0 2 4 4 1 0 0 0 0 0 0 0 0 0 0 0 0 0
257 202 93 20 19 14 43 54 55 77 76 28 79 93 149 138 61 67 37 88 13 7 9 3 0 1 4 7 2 0 0 0 0 0 0 0 0 0 0 0 0 0 0
272 279 232 163 134 118 158 89 59 71 104 139 89 134 90 83 103 48 1 9 44 11 3 0 4 3 0 0 0 0 0 0 0 0 0 0 0 0 0 0 0 0 0
251 248 214 139 91 139 164 214 142 89 100 143 77 119 65 88 28 0 0 0 1 3 1 6 6 0 0 0 0 0 0 0 0 0 0 0 0 0 0 0 0 0 21

GFSMA_con_mucape_081.txt.gz
CAPE
79 57 114 262 124 39 0 0 0 0 1 0 0 2 4 28 22 6 10 24 27 20 10 5 7 6 0 0 0 0 0 0 0 0 0 0 0 0 0 0 0 0 0
28 6 37 134 228 161 61 17 10 1 0 0 1 3 7 23 28 9 3 9 18 24 18 9 7 5 0 0 0 0 0 0 0 0 0 0 0 0 0 0 0 0 0
41 93 83 162 298 235 251 140 39 0 0 0 0 5 6 16 16 27 1 3 4 12 27 27 12 6 0 0 0 0 0 0 0 0 0 0 0 0 0 0 0 0 0
58 60 77 131 269 266 184 120 38 0 2 0 0 3 5 5 18 27 21 12 5 9 10 24 23 10 1 0 0 0 0 0 0 0 0 0 0 0 0 0 0 0 0
0 5 48 121 145 106 100 112 94 79 13 3 1 0 2 0 19 6 23 25 20 17 15 3 9 11 0 0 0 0 0 0 0 0 0 0 0 0 0 0 0 0 0
1 2 32 63 59 15 57 98 102 65 35 3 0 0 0 0 1 15 3 3 9 2 9 16 0 0 0 0 1 0 0 0 0 0 0 0 0 0 0 0 0 0 0
40 37 70 73 62 16 10 68 30 46 5 4 0 0 0 0 0 0 1 0 0 0 0 0 0 0 0 0 0 0 45 0 0 0 0 0 0 0 0 0 0 0 0
36 141 158 147 45 24 67 64 52 56 15 17 0 0 0 0 0 0 0 0 0 0 0 0 5 10 0 2 0 9 0 0 0 26 3 0 0 0 0 0 0 0 0
85 154 158 131 94 191 140 233 225 206 146 22 17 106 146 169 114 15 7 6 9 0 0 7 4 2 4 1 0 0 5 3 1 0 26 43 81 41 5 34 32 29 12
61 78 113 112 170 170 206 191 179 194 158 111 5 19 108 178 104 30 29 15 15 20 9 1 0 0 0 0 0 0 4 8 2 4 2 9 4 0 10 31 50 59 75
2 13 56 99 86 105 253 233 192 131 191 243 180 140 130 141 118 66 30 113 5 11 11 4 2 11 2 0 0 0 0 9 5 2 2 5 8 0 0 0 0 3 40
0 31 59 24 59 79 199 269 313 230 230 278 267 333 232 147 91 20 6 110 195 60 19 10 23 2 0 0 0 0 0 10 2 0 0 7 0 0 0 0 0 0 0
0 0 0 37 32 67 219 321 296 348 294 303 223 235 136 185 118 225 220 305 306 84 37 27 5 4 5 2 0 0 0 2 1 0 0 0 0 0 0 0 0 0 0
0 0 0 1 3 34 101 320 294 315 573 435 479 296 181 354 289 310 351 266 25 11 10 2 0 7 18 11 0 0 0 0 0 0 0 0 0 0 0 0 0 0 0
7 12 6 14 12 81 92 235 224 193 331 160 353 524 414 451 420 419 407 311 115 29 1 0 17 26 4 0 0 0 0 0 0 0 0 0 0 0 0 0 0 0 0
66 39 55 26 23 14 74 118 170 211 271 332 432 399 412 424 391 373 317 107 31 28 13 0 18 21 2 0 0 0 0 0 0 0 0 0 0 0 0 0 0 0 0
50 45 43 29 41 61 114 140 169 219 241 271 294 323 317 241 133 90 81 52 26 24 1 0 34 1 0 0 0 0 3 1 1 2 3 3 0 0 0 0 0 0 0
54 14 41 23 42 70 134 129 153 135 186 235 274 276 282 70 94 83 1 25 2 1 0 0 30 17 0 0 0 0 4 0 0 4 1 4 1 0 0 0 0 0 0
101 65 46 47 35 80 144 176 179 179 196 233 291 251 94 104 13 13 8 0 12 0 0 2 0 9 4 5 0 0 0 1 4 0 3 6 0 0 0 0 0 0 0
126 122 46 55 68 72 89 114 115 128 157 127 233 149 2 49 16 13 5 14 0 0 0 6 3 1 8 11 2 1 0 3 0 6 1 2 0 0 0 0 0 0 0
228 193 155 124 132 116 70 150 128 150 152 155 87 55 59 23 18 33 37 30 8 29 40 55 20 9 16 1 0 2 1 0 7 3 0 0 0 0 0 0 0 0 0
197 184 110 105 138 23 0 0 5 197 76 112 22 20 13 0 43 39 25 24 32 32 78 34 0 12 8 3 5 2 0 0 0 0 0 0 0 0 0 0 0 0 0
181 128 118 103 126 146 0 0 0 4 9 23 14 6 11 22 41 34 50 50 19 27 40 52 4 12 7 5 1 3 0 0 0 5 0 0 0 0 0 0 0 0 0
287 287 244 234 254 198 24 6 24 17 4 0 2 6 44 29 0 34 93 67 49 41 41 13 0 0 0 0 0 0 1 1 0 0 0 0 0 0 0 0 0 0 0
296 218 207 182 201 213 35 26 33 26 17 32 43 124 175 179 70 61 69 87 70 105 9 11 1 0 0 0 0 0 1 0 0 0 0 0 0 0 0 0 0 0 0
248 231 234 174 128 159 137 125 66 115 134 137 132 76 205 82 120 107 97 86 63 80 40 0 0 0 0 0 0 0 0 0 0 0 0 0 0 0 0 0 0 0 0

GFSMA_con_mucape_084.txt.gz
CAPE
24 94 113 72 57 0 0 0 0 0 0 0 0 3 21 1 0 0 0 11 22 24 14 11 8 7 3 0 0 0 0 0 0 0 0 0 0 0 0 0 0 0 0
29 50 69 59 44 0 1 0 0 0 0 0 0 0 16 2 0 0 0 0 11 24 20 11 7 5 5 0 0 0 0 0 0 0 0 0 0 0 0 0 0 0 0
18 54 12 45 35 17 0 4 2 2 1 0 0 3 14 19 0 0 0 0 1 14 20 19 7 3 2 0 0 0 0 0 0 0 0 0 0 0 0 0 0 0 0
43 20 6 9 91 154 81 23 4 0 0 0 0 1 6 29 8 0 0 0 0 0 16 16 15 10 1 0 0 0 0 0 0 0 0 0 0 0 0 0 0 0 0
30 30 14 9 53 98 90 64 27 0 0 1 0 2 1 13 22 5 0 0 0 0 0 5 6 5 1 0 0 0 0 0 0 0 0 0 0 0 0 0 0 0 0
3 7 5 15 37 55 98 64 13 5 1 0 0 9 21 20 0 8 31 7 2 0 0 0 0 0 0 0 0 0 0 0 0 0 0 0 0 0 0 0 0 0 0
4 6 12 22 66 68 86 25 10 0 0 0 0 0 19 25 5 3 0 0 5 2 6 0 0 0 0 0 0 0 0 0 0 0 0 0 0 0 0 0 0 0 0
8 4 11 2 4 49 60 53 14 6 0 0 0 0 0 0 0 1 1 0 0 0 0 0 0 0 0 0 0 0 12 31 13 9 0 0 0 0 0 0 0 0 0
1 4 3 1 0 10 33 34 3 0 0 0 0 17 18 2 0 0 0 0 2 2 5 3 9 6 1 0 0 0 0 0 71 73 108 83 45 26 3 2 0 15 25
0 0 0 3 39 32 45 11 25 1 55 0 4 36 70 69 50 24 16 23 22 8 14 13 3 0 0 0 0 0 0 0 0 64 94 24 0 39 29 24 53 55 59
0 0 2 36 26 114 98 88 96 71 95 90 20 35 41 84 83 57 19 4 0 5 23 19 7 3 20 21 0 0 0 0 0 3 59 54 9 15 15 5 0 0 0
1 0 50 60 77 94 93 102 95 88 58 86 126 119 66 71 92 47 32 11 3 4 6 15 10 5 5 1 0 0 0 0 0 0 15 8 2 3 3 0 0 0 0
0 0 3 16 54 70 113 106 67 82 108 76 75 49 115 140 101 52 24 2 31 42 10 0 0 0 0 0 0 0 0 0 0 0 4 2 0 0 0 0 0 0 0
0 0 0 0 3 34 63 81 48 32 79 104 89 61 58 84 59 48 52 64 93 84 29 10 6 0 0 0 0 0 0 0 0 0 0 0 0 0 0 0 0 0 0
5 7 7 4 8 1 4 18 48 28 40 81 28 38 37 51 62 60 88 65 58 16 0 0 0 1 14 7 5 5 1 0 0 0 0 0 0 0 0 0 0 0 0
9 2 8 17 11 17 6 12 25 47 51 95 95 64 67 64 95 104 78 68 57 30 48 0 0 0 1 3 0 6 0 0 0 0 0 0 0 0 1 1 0 0 0
0 1 4 8 9 11 2 8 3 3 45 30 40 51 68 109 90 101 94 88 92 63 10 8 3 4 0 1 0 0 0 0 0 0 0 0 1 10 10 4 2 0 0
0 0 0 0 0 1 2 0 0 0 0 21 26 69 75 88 109 107 117 80 63 48 36 14 11 0 0 0 4 11 0 0 0 0 0 0 0 2 0 0 3 0 0
0 0 0 0 0 0 0 0 0 0 0 0 4 42 40 66 71 122 135 82 30 31 28 13 0 6 2 0 0 8 10 4 0 1 0 1 4 2 0 0 2 0 0
13 9 4 0 0 1 0 0 0 0 0 6 13 33 62 82 81 117 130 64 43 0 24 9 7 0 0 5 0 0 5 1 6 0 0 6 4 0 0 1 0 0 0
47 31 5 0 0 3 1 0 0 0 0 11 37 48 39 51 79 93 88 53 31 5 22 49 0 5 16 16 1 11 0 4 0 0 0 0 0 2 3 1 0 0 0
46 38 32 24 8 0 0 0 0 0 3 5 5 10 7 21 54 43 25 32 41 26 19 19 15 13 0 0 15 46 40 0 0 0 0 0 0 0 0 0 0 0 0
96 62 52 16 6 11 15 12 4 1 9 12 13 10 22 24 36 28 72 41 25 23 45 34 45 5 0 0 2 4 3 0 0 0 0 0 0 0 0 0 0 0 0
126 142 131 100 49 38 49 46 39 42 38 8 15 20 21 15 28 22 14 24 38 38 34 31 44 16 21 6 6 12 3 0 0 0 0 0 0 0 0 0 0 0 0
89 129 138 159 147 115 79 97 79 43 28 40 29 13 7 22 36 13 60 68 64 96 33 35 63 39 1 4 11 1 0 0 0 0 0 0 0 0 0 0 0 0 0
120 88 112 122 147 110 139 156 107 184 73 92 53 42 21 0 0 12 105 87 74 19 53 55 45 20 1 11 0 0 0 0 0 0 0 0 0 0 0 0 0 0 0

GFSMA_con_mucape_087.txt.gz
CAPE
15 32 14 2 13 0 0 0 0 0 0 0 0 0 0 0 0 0 0 12 19 25 14 9 7 5 4 4 4 3 0 0 0 0 0 0 0 0 0 0 0 0 0
26 24 24 12 1 0 0 0 0 0 0 0 0 0 0 0 0 0 0 0 8 16 15 9 7 7 4 1 0 0 0 0 0 0 0 0 0 0 0 0 0 0 0
25 56 24 16 5 0 0 0 0 0 0 0 0 0 0 2 0 0 0 0 0 3 14 12 9 7 5 3 0 0 0 0 0 0 0 0 0 0 0 0 0 0 0
64 35 38 28 12 1 0 0 0 0 0 0 2 0 7 2 0 0 0 0 0 0 2 10 13 11 5 4 2 0 0 0 0 0 0 0 0 0 0 0 0 0 0
80 64 40 25 16 6 4 9 5 4 0 0 1 3 8 4 0 0 0 0 0 0 0 1 4 8 7 2 0 0 0 0 0 0 0 0 0 0 0 0 0 0 0
35 65 50 62 23 0 7 26 20 0 0 0 3 1 10 6 4 0 0 0 0 0 0 0 0 0 0 0 0 0 0 0 0 0 0 0 0 0 0 0 0 0 0
30 19 6 8 15 0 41 53 14 0 0 13 14 17 15 50 19 1 21 1 0 0 0 0 0 0 0 0 0 0 0 0 0 0 0 0 0 0 0 0 0 0 0
31 4 1 5 3 21 48 56 38 6 16 9 6 21 9 6 1 18 14 18 5 0 0 0 0 0 0 0 0 0 0 4 0 0 0 0 1 1 0 0 0 0 0
35 4 3 21 19 38 57 72 46 4 4 6 13 0 0 0 2 6 1 2 4 0 0 0 0 0 0 0 0 0 0 0 25 77 81 45 11 13 4 1 5 9 0
16 13 11 11 15 20 49 45 0 1 5 0 0 10 11 11 0 0 0 0 0 0 0 5 11 2 1 0 0 0 0 0 0 10 85 98 104 85 74 63 57 30 57
4 3 3 9 12 1 0 0 5 11 12 0 0 0 48 33 17 5 2 1 14 5 2 13 18 2 3 0 0 0 0 0 0 0 0 72 98 93 99 82 71 78 60
2 0 0 0 5 4 1 3 23 15 48 22 2 12 37 35 29 42 13 3 0 0 0 0 0 0 8 2 1 0 0 0 0 0 0 1 53 101 112 64 44 14 0
0 0 0 0 0 1 26 11 22 41 66 99 54 23 47 25 45 44 49 33 16 12 10 1 2 14 16 13 5 0 0 0 0 0 0 0 1 19 22 6 0 0 0
2 1 1 0 0 16 42 38 39 60 68 57 25 33 51 34 37 52 45 53 26 16 35 18 21 23 25 23 12 4 6 2 0 1 4 0 0 0 0 0 0 0 0
11 9 4 7 0 16 31 61 46 46 43 8 18 12 23 27 16 22 36 43 29 0 0 13 48 29 28 22 9 16 23 2 3 10 6 0 0 0 0 0 0 0 0
0 6 3 9 20 21 6 18 48 34 21 16 10 20 11 13 34 32 30 40 40 10 2 0 0 0 6 12 25 14 8 9 11 31 9 0 0 0 0 0 2 0 3
0 0 0 6 8 12 16 13 8 12 23 12 3 18 15 11 3 31 40 42 33 36 41 3 0 1 20 23 29 17 1 19 13 8 0 0 0 0 0 4 8 13 5
0 0 0 0 0 3 3 2 3 4 12 8 19 21 18 21 24 9 15 25 31 27 24 2 15 1 6 17 7 21 28 38 1 8 3 2 0 0 0 8 9 16 5
0 0 0 0 0 0 0 0 0 0 0 0 0 17 12 19 7 4 7 12 8 15 32 25 33 41 0 16 2 21 0 0 1 3 17 4 7 1 1 5 6 6 3
2 0 0 0 0 0 0 0 0 0 0 0 0 0 0 7 5 1 8 16 22 31 52 44 30 0 0 0 5 4 3 1 1 10 4 5 23 4 1 0 5 0 0
15 1 0 0 0 0 0 0 0 0 0 0 0 0 0 0 0 3 10 19 81 105 57 19 0 9 0 6 1 9 7 0 0 0 7 15 1 0 0 0 1 1 2
31 44 57 63 0 0 0 0 0 0 0 0 0 0 0 0 0 4 25 67 96 117 19 47 44 3 9 3 14 12 13 9 10 1 0 0 1 0 0 0 0 0 0
32 32 54 67 70 34 14 5 4 0 0 2 3 0 0 0 0 29 95 129 122 108 95 54 12 10 0 0 12 25 10 1 7 0 0 3 0 1 0 0 0 0 0
115 67 26 50 62 97 53 59 24 11 2 1 2 0 0 3 42 58 58 78 88 97 84 65 39 23 15 10 1 17 0 11 5 2 0 1 0 0 0 0 0 0 0
118 118 108 72 53 92 91 105 80 55 35 37 11 24 22 28 34 71 55 93 92 85 75 63 53 12 3 3 3 0 0 20 6 0 0 0 0 0 0 0 0 0 0
267 213 247 154 157 104 85 96 123 177 67 96 98 51 54 32 28 35 50 33 53 17 38 29 4 6 6 7 1 1 1 9 3 0 0 0 0 0 0 0 0 0 0

GFSMA_con_mucape_093.txt.gz
CAPE
27 78 59 40 19 42 68 56 0 0 0 0 0 0 0 0 0 0 0 23 29 31 15 9 15 8 11 13 17 10 11 10 9 5 2 0 0 0 0 0 0 0 0
42 40 77 55 21 73 69 63 1 0 0 0 0 0 0 0 0 0 0 3 14 26 26 15 18 21 15 16 11 8 6 6 5 0 0 0 0 0 0 0 0 0 0
40 51 60 47 72 72 40 11 5 0 0 0 0 0 0 0 0 0 0 0 5 10 25 35 29 16 14 14 9 6 4 0 0 0 0 0 0 0 0 0 0 0 0
20 32 39 27 37 55 5 0 0 0 0 0 0 0 0 0 0 0 0 0 0 0 10 19 23 21 14 9 10 6 5 0 0 0 0 0 0 0 0 0 0 0 0
51 27 35 32 44 30 0 0 0 6 0 0 0 0 0 0 0 0 0 0 0 0 0 10 9 12 15 9 7 8 5 0 0 0 0 0 0 0 0 0 0 0 0
83 49 38 30 40 6 10 0 0 3 0 0 0 0 0 0 0 0 0 0 0 0 0 0 1 0 2 10 9 10 4 0 0 0 0 0 0 0 0 0 0 0 0
71 33 53 28 27 26 8 11 9 0 0 0 3 3 4 2 0 0 0 0 0 0 0 0 0 0 0 4 10 0 0 0 0 0 0 0 0 0 0 0 0 0 0
31 45 60 43 55 28 18 5 2 0 5 2 1 13 8 11 12 4 4 0 0 0 0 0 0 0 0 0 0 4 0 4 0 0 0 0 0 0 0 0 0 0 0
18 35 44 50 50 32 16 3 5 1 2 9 8 11 11 0 18 23 27 7 6 0 0 6 2 1 0 7 9 7 2 2 27 51 32 21 3 0 0 0 0 0 0
24 44 32 27 17 27 25 4 3 4 49 7 38 46 64 46 70 30 17 29 20 29 41 34 52 43 25 31 22 13 7 4 1 5 107 126 26 18 15 27 25 8 0
0 25 19 36 8 18 12 8 8 0 24 51 48 71 93 35 71 46 39 31 32 42 68 85 90 70 54 43 36 23 21 15 1 1 3 59 129 104 68 55 80 76 54
4 6 18 10 4 18 17 10 5 0 0 56 62 59 68 31 24 13 6 13 19 64 89 86 73 69 52 41 46 39 11 0 6 6 9 11 12 80 141 140 122 113 112
0 0 0 2 5 9 6 3 0 0 0 0 12 73 82 45 41 22 2 0 3 54 41 26 39 40 23 6 11 5 3 3 12 14 20 11 6 17 26 71 135 161 163
0 0 3 0 0 3 8 0 4 16 0 28 56 48 49 37 57 31 8 10 0 5 12 2 27 9 7 7 7 8 5 14 17 12 10 12 8 8 33 36 34 55 99
2 7 7 20 10 12 10 2 23 0 6 6 26 39 58 54 62 62 42 48 43 30 2 12 13 22 36 29 14 24 17 4 7 4 10 25 13 25 17 31 48 37 22
0 0 1 1 0 23 12 4 4 4 16 7 8 12 38 39 51 40 40 41 44 42 0 1 3 0 13 23 5 10 11 12 14 15 15 20 23 26 20 32 28 26 7
0 0 0 0 0 0 0 0 5 14 14 19 13 15 12 31 35 31 30 34 33 26 6 10 0 0 3 11 13 11 6 15 16 8 9 9 8 9 9 18 7 5 5
0 0 0 0 0 0 0 0 0 0 3 4 1 0 2 15 18 18 38 28 20 1 12 1 7 0 0 0 6 0 2 4 12 8 6 22 5 0 1 0 0 5 25
0 0 0 0 0 0 0 0 0 0 0 0 0 0 0 10 3 5 14 15 2 1 10 46 0 10 5 4 0 0 0 0 0 2 31 36 6 5 1 1 1 0 4
0 0 0 0 0 0 0 0 0 0 0 0 0 0 0 0 0 1 9 2 2 5 9 0 0 5 0 0 0 0 0 0 0 2 27 29 34 5 8 9 11 5 5
0 0 0 0 0 0 0 0 0 0 0 0 0 0 0 0 0 0 0 0 2 2 4 1 0 0 0 0 0 0 0 0 0 10 28 11 17 5 5 7 13 12 4
0 0 0 0 0 0 0 0 0 0 0 0 0 0 0 0 0 0 0 0 0 0 0 0 0 0 0 0 0 0 0 0 0 0 7 12 13 1 14 0 1 7 1
103 73 41 10 0 0 0 0 0 0 0 0 0 0 0 0 0 0 0 0 0 3 6 3 0 1 0 0 0 0 0 12 0 1 1 0 8 1 15 1 4 2 1
66 88 96 126 107 82 69 36 4 0 5 2 0 0 1 3 6 0 0 0 0 0 1 8 37 15 9 5 6 16 54 34 24 10 13 30 8 12 4 4 1 0 3
45 77 93 90 97 100 110 161 155 214 128 41 32 17 11 0 13 7 3 5 14 14 34 15 18 19 22 26 22 40 62 44 51 21 10 26 0 0 0 0 1 0 0
68 55 55 70 93 82 67 127 142 321 231 238 92 76 81 30 53 28 23 11 0 0 5 6 9 4 2 10 12 13 28 41 78 9 0 16 10 0 2 0 0 0 0

GFSMA_con_mucape_096.txt.gz
CAPE
9 12 40 67 95 96 62 66 81 26 1 0 0 0 0 0 0 0 1 18 40 47 17 35 37 39 26 28 18 8 13 15 14 10 10 9 5 4 2 0 0 0 0
1 33 13 64 65 43 70 52 71 56 24 7 0 0 0 0 0 0 0 8 26 43 40 36 36 33 26 17 9 13 14 12 9 8 6 4 0 0 0 0 0 0 0
30 21 25 40 36 20 69 58 85 76 5 0 0 0 0 0 0 0 0 8 13 15 28 44 29 26 21 10 6 10 9 6 6 5 0 0 0 0 0 0 0 0 0
3 20 14 30 15 39 64 61 62 32 0 0 0 0 0 0 0 0 0 0 5 8 16 32 33 30 15 5 15 12 8 7 6 0 0 0 0 0 0 0 0 0 0
0 27 38 14 23 60 48 62 63 19 0 0 0 0 0 0 0 0 0 0 0 3 5 13 18 20 19 19 12 9 10 6 3 0 0 0 0 0 0 0 0 0 0
11 12 6 15 25 61 35 26 9 0 0 0 0 0 4 3 0 0 0 0 0 0 0 0 2 1 3 12 9 11 12 9 1 0 0 0 0 0 0 0 0 0 0
59 28 16 16 20 1 30 20 0 0 5 0 0 7 17 17 1 0 0 0 0 0 0 0 0 0 0 5 10 5 14 17 0 0 0 0 0 0 0 0 0 0 0
34 33 25 30 31 4 70 17 2 0 8 6 11 18 12 13 3 1 0 0 0 0 0 0 0 0 0 0 3 24 13 20 4 0 0 0 0 0 0 0 0 0 0
63 49 27 32 45 23 60 22 2 4 6 12 20 17 4 8 1 0 0 0 0 0 0 0 0 0 0 5 3 5 7 11 72 151 105 38 18 0 2 7 4 0 0
0 5 13 27 77 47 48 21 10 3 2 0 3 51 32 1 20 7 7 0 0 0 0 0 0 0 0 0 7 33 36 42 20 27 170 205 108 47 24 23 16 1 0
0 9 13 30 16 38 29 29 16 8 0 1 0 59 70 51 52 38 19 17 55 26 28 44 41 34 31 48 47 66 75 50 35 28 15 74 195 164 75 67 62 53 50
0 14 10 5 25 5 45 25 18 10 6 0 0 82 99 84 19 0 34 55 81 39 38 35 35 56 84 87 78 80 69 58 39 18 14 8 7 68 170 159 114 107 112
0 0 0 2 10 14 34 19 19 22 6 1 0 76 104 110 68 18 55 48 39 26 7 9 25 75 88 84 75 76 58 35 42 21 7 13 6 4 7 32 115 165 151
0 0 0 8 11 3 6 9 11 17 18 2 0 9 9 0 25 29 38 28 1 10 0 0 31 34 55 66 60 41 7 35 15 12 27 11 12 7 7 10 10 15 73
0 0 0 0 0 1 0 7 1 3 3 3 0 0 0 0 0 34 30 31 18 0 0 0 3 26 32 20 33 14 10 23 15 18 8 5 4 12 15 8 8 13 25
0 0 0 0 0 0 3 4 4 7 0 0 2 2 0 0 16 43 26 37 46 21 0 0 15 39 43 33 23 7 21 13 4 4 12 11 5 7 7 10 12 13 26
0 0 0 0 8 0 5 0 7 15 12 5 7 18 0 5 0 34 43 46 51 47 35 3 6 14 20 19 10 7 16 2 5 6 23 7 14 15 21 21 25 14 7
0 0 0 0 11 0 0 6 0 6 4 6 14 6 12 31 4 14 4 7 17 24 31 0 8 4 7 0 12 16 6 5 11 8 6 11 6 7 25 32 49 35 0
0 0 0 0 0 0 4 3 0 0 0 0 16 4 24 19 12 11 6 5 16 18 20 38 9 3 3 2 15 7 9 7 3 1 0 0 0 1 14 22 30 31 5
0 0 0 0 0 0 0 0 0 0 0 0 0 0 10 8 13 10 1 0 0 15 26 36 37 19 16 11 18 16 0 0 0 0 0 0 0 0 0 4 22 7 14
0 0 0 0 0 0 0 0 0 0 0 0 0 0 0 0 0 0 0 0 1 4 5 6 5 4 0 3 0 0 0 0 0 0 0 0 0 0 0 3 17 7 11
0 0 0 0 0 0 0 0 0 0 0 0 0 0 0 0 0 0 0 0 0 0 0 0 0 0 0 0 0 0 0 0 0 0 0 0 0 0 7 0 4 5 13
49 40 39 45 38 25 9 0 0 1 2 0 0 0 0 0 0 0 0 0 0 1 0 0 0 0 0 2 1 0 0 0 0 1 1 0 4 2 32 0 3 4 12
41 49 21 18 8 34 23 23 25 37 18 19 0 0 0 0 0 0 4 7 2 4 8 17 19 20 12 8 3 3 3 5 5 7 6 4 5 11 0 6 3 7 6
23 13 12 32 31 43 4 5 31 52 65 36 53 101 52 50 65 52 40 21 21 12 32 51 18 20 22 28 39 44 37 24 20 13 13 18 17 15 11 9 0 0 0
30 46 41 16 17 38 28 27 38 39 13 1 2 16 25 29 74 98 70 18 52 107 119 29 26 6 5 11 12 10 10 40 40 12 9 0 3 10 17 0 0 0 0

GFSMA_con_mucape_099.txt.gz
CAPE
204 283 176 123 118 150 49 59 42 54 55 26 0 0 0 0 1 33 36 22 42 79 33 36 39 32 32 35 25 25 18 13 13 9 12 12 9 8 4 3 1 0 0
168 14 94 85 128 145 81 61 54 49 81 1 0 0 0 0 0 17 22 31 27 51 58 38 33 31 32 34 23 15 14 8 9 7 11 8 6 5 0 0 0 0 0
58 12 1 49 28 69 38 62 63 66 61 37 19 0 0 0 0 6 19 10 31 24 36 45 45 34 31 27 19 15 5 4 12 11 9 6 4 0 0 0 0 0 0
63 41 24 36 23 49 22 43 60 51 59 66 43 3 0 0 0 0 9 26 31 25 28 43 47 44 34 17 6 12 14 14 9 8 6 0 0 0 0 0 0 0 0
148 84 83 13 45 33 18 3 42 52 72 81 74 19 0 6 13 1 16 24 37 27 37 22 24 21 27 22 19 16 18 15 10 8 0 0 0 0 0 0 0 0 0
101 110 33 6 6 13 18 38 60 45 89 70 51 22 2 14 10 8 10 14 26 28 35 27 25 12 9 23 24 17 20 13 9 7 0 0 0 0 0 0 0 0 0
39 44 33 8 2 5 30 34 52 60 0 48 56 18 7 2 10 7 9 15 15 25 24 34 19 19 11 13 25 21 23 17 13 5 0 0 0 0 0 0 0 0 0
69 85 35 47 18 7 6 26 35 4 13 24 23 8 5 6 7 3 8 10 24 25 1 10 13 6 7 5 6 13 31 46 18 13 5 1 1 0 0 0 0 0 0
85 89 34 46 12 25 5 12 16 22 3 4 3 4 0 9 3 1 12 14 21 22 24 10 16 15 4 2 10 1 14 23 122 134 114 65 17 7 4 1 0 3 1
17 16 24 34 60 37 22 6 4 12 1 0 0 1 16 3 0 8 5 6 15 9 16 5 3 1 3 0 1 0 5 16 48 75 218 258 151 75 30 11 2 0 1
0 20 8 31 13 73 36 50 9 12 0 0 2 0 0 17 38 28 11 0 7 9 22 15 0 0 4 0 11 15 6 40 60 71 61 112 239 258 191 126 86 57 30
0 0 40 0 6 12 23 57 11 22 0 0 2 1 0 0 0 0 18 63 82 72 35 16 22 21 14 12 27 41 67 61 67 78 49 44 72 94 230 255 226 175 125
0 0 2 12 8 35 18 40 40 40 22 10 1 6 2 1 0 49 0 71 131 95 77 73 42 37 20 28 49 77 89 64 80 57 51 34 24 18 11 21 121 232 257
2 0 27 7 13 6 0 32 25 49 15 9 1 4 0 0 0 66 0 0 14 134 112 79 19 32 45 30 81 98 74 78 60 31 25 40 26 31 7 6 0 4 21
0 0 0 0 0 5 9 19 0 2 12 1 0 3 0 0 0 12 61 84 0 6 75 59 55 11 25 69 63 62 53 63 41 26 19 26 10 8 6 2 4 7 10
0 0 0 0 1 0 10 2 17 2 3 5 7 0 0 0 0 32 48 61 0 0 57 10 27 52 10 0 15 44 39 27 9 9 13 9 9 4 4 5 7 6 12
0 0 0 0 0 0 0 0 0 2 0 0 1 3 0 1 27 38 73 69 63 124 112 56 37 80 29 13 8 10 3 6 9 2 1 1 6 4 0 9 2 6 9
0 0 0 0 0 5 1 0 0 0 5 3 7 8 10 0 11 1 3 8 64 62 73 119 119 109 63 38 84 14 15 2 3 2 2 4 5 9 4 3 9 6 5
0 0 0 0 5 5 5 2 5 0 3 8 6 10 9 10 9 3 0 2 7 10 65 122 98 84 67 25 28 21 16 19 5 2 3 3 15 12 4 2 1 3 0
0 0 0 0 0 0 0 3 13 9 5 0 18 31 15 7 12 10 1 0 3 1 2 133 110 74 135 114 109 73 120 49 26 5 3 9 11 6 2 1 2 2 0
0 0 0 0 0 0 0 0 0 4 12 5 0 4 21 8 0 11 4 8 9 11 10 91 125 141 135 170 133 81 110 78 92 42 7 20 34 3 1 1 2 6 4
0 0 0 0 0 0 0 0 0 0 0 0 0 0 0 0 0 0 0 0 17 15 43 38 0 0 0 36 45 40 36 0 0 61 73 59 53 17 0 0 0 3 4
30 10 7 9 10 14 11 6 0 0 0 0 0 0 0 0 0 0 0 0 0 3 3 10 6 1 0 0 23 5 4 0 2 21 34 0 0 0 0 0 4 1 30
47 40 25 30 16 6 2 1 8 14 23 31 45 49 17 22 11 0 3 10 7 11 18 25 23 25 20 10 16 8 13 20 20 21 19 11 5 5 2 6 1 0 1
28 62 53 14 26 24 11 6 7 13 23 34 32 28 14 10 3 11 9 38 43 40 32 16 6 12 9 11 27 36 29 23 21 6 13 17 5 10 21 3 10 5 4
43 58 37 32 45 10 3 17 30 43 57 50 61 20 33 8 8 20 6 17 4 4 0 0 28 1 12 10 1 0 0 0 0 2 5 0 4 0 0 2 0 9 8

GFSMA_con_mucape_102.txt.gz
CAPE
637 279 351 497 609 835 251 132 59 111 505 355 236 209 159 85 75 64 38 29 43 62 42 47 64 48 31 31 28 20 17 19 4 10 11 7 12 7 6 7 3 1 1
598 618 569 507 740 755 407 129 72 103 495 399 210 173 155 99 74 60 25 52 29 49 72 55 72 49 42 27 27 18 18 10 12 8 13 13 9 7 5 4 0 0 0
545 454 346 369 580 396 93 69 23 69 60 234 169 148 137 98 44 30 62 55 46 27 41 77 93 48 39 32 23 21 18 16 11 12 13 10 9 7 3 0 0 0 0
482 443 340 256 274 142 39 2 19 53 47 157 168 165 149 74 40 40 41 62 51 44 26 63 69 56 48 29 17 16 16 16 10 8 10 9 8 7 0 0 0 0 0
419 391 281 67 62 17 58 17 38 34 33 165 141 120 103 52 35 32 29 36 40 44 31 47 39 32 36 42 22 18 16 12 12 12 10 10 5 0 0 0 0 0 0
384 428 302 8 17 20 19 26 10 14 47 142 107 112 94 51 44 42 22 36 32 39 41 60 33 35 25 34 32 18 21 13 13 10 10 7 0 0 0 0 0 0 0
287 262 110 5 4 15 30 19 13 9 52 67 72 33 77 53 28 44 22 40 49 20 35 37 27 38 19 27 35 20 22 17 13 13 9 0 0 0 0 5 0 0 0
274 232 40 26 4 5 26 16 5 20 40 58 0 38 0 8 45 35 40 36 34 44 38 44 35 33 35 23 12 24 21 26 17 13 9 12 0 1 10 5 5 4 0
176 35 29 20 34 1 11 3 6 21 0 0 54 0 0 0 15 27 40 30 41 35 35 46 43 21 18 51 15 7 5 6 70 70 69 47 26 24 29 34 15 17 10
47 48 41 43 7 2 4 25 10 8 4 0 63 80 58 40 23 53 19 21 26 28 37 33 29 23 25 24 16 3 0 0 0 40 182 162 138 85 75 50 32 19 16
60 54 23 30 18 43 25 22 14 7 2 13 35 116 83 65 59 37 13 20 20 35 33 24 20 39 34 15 38 5 0 0 0 5 28 158 297 258 196 160 110 62 34
24 29 67 8 30 14 36 12 14 2 5 32 115 183 47 42 46 0 0 0 89 83 34 23 72 55 60 35 10 0 0 0 1 5 31 51 92 213 322 321 284 262 217
22 25 41 67 3 30 27 7 22 12 1 4 23 31 6 1 0 0 0 34 87 113 95 108 118 83 78 116 85 9 6 22 31 52 55 46 58 66 71 85 191 308 332
24 27 51 56 34 6 0 32 41 17 44 12 11 7 4 0 1 0 0 0 0 15 92 153 129 131 127 129 162 67 47 26 56 79 46 32 27 31 43 38 48 44 13
0 3 36 0 1 2 20 12 1 10 36 33 14 4 18 6 2 0 0 0 0 0 0 44 139 200 227 214 144 128 104 58 67 74 50 38 20 8 14 22 24 1 0
0 0 0 0 3 7 6 3 3 4 15 16 1 4 6 6 8 5 0 0 4 0 0 50 102 136 208 149 121 147 141 63 46 34 35 28 15 21 19 13 5 3 3
0 0 0 0 0 0 7 5 1 14 8 6 0 1 5 7 13 10 0 1 3 2 1 3 47 93 156 208 69 83 76 44 74 24 10 5 4 3 0 2 1 0 3
3 0 0 0 0 0 0 0 0 0 2 10 0 0 0 0 0 58 5 5 25 105 94 56 0 53 233 154 202 170 52 4 0 0 2 9 1 4 6 2 2 5 3
3 0 0 0 0 0 0 0 0 0 0 0 0 0 0 24 0 0 0 1 4 51 93 6 9 145 148 122 165 152 147 148 10 0 0 0 1 7 2 3 6 5 4
5 0 9 0 0 0 1 0 0 0 0 4 0 0 3 3 4 8 4 4 0 0 1 1 0 27 31 48 157 119 162 205 88 32 3 1 0 0 1 0 2 8 8
7 7 8 18 12 0 0 0 0 0 4 0 4 2 0 0 0 0 18 16 4 5 12 8 2 1 7 5 99 122 179 175 212 256 270 278 213 165 18 0 0 0 0
7 8 2 17 23 0 0 0 0 0 0 0 27 14 1 0 0 0 0 0 10 47 32 19 1 6 9 52 142 168 177 182 133 210 259 230 207 138 18 24 11 5 0
19 5 8 12 11 0 0 0 0 3 21 15 18 21 10 3 2 2 0 0 1 1 1 74 129 116 100 72 36 78 102 84 80 4 2 9 9 0 1 2 0 1 2
28 10 10 3 3 10 10 5 6 15 24 24 35 40 48 60 37 20 22 13 18 10 13 10 13 13 12 8 7 7 7 9 8 13 17 3 4 0 0 5 12 0 0
136 89 42 38 25 46 24 22 26 53 59 60 18 25 37 41 28 40 45 27 34 0 6 3 11 14 9 13 2 0 0 0 0 0 0 0 0 0 0 0 0 0 0
146 64 38 31 105 155 49 17 43 38 58 79 79 54 53 46 45 30 22 32 28 49 34 27 8 1 4 4 1 1 0 0 0 0 0 0 0 0 0 0 0 0 0

GFSMA_con_mucape_105.txt.gz
CAPE
1453 1366 1219 1025 832 1111 775 641 405 39 39 68 148 308 299 359 87 50 32 28 48 72 35 40 38 34 40 40 60 35 24 13 6 6 16 19 7 12 11 7 2 2 1
1472 1178 978 740 570 1014 884 760 305 68 50 45 238 421 181 147 97 111 33 34 32 45 51 63 47 45 36 55 35 20 13 7 11 11 10 14 13 6 10 5 0 0 0
1190 897 687 576 641 1144 724 590 287 67 96 103 309 234 107 97 81 47 38 50 34 25 47 74 69 54 34 50 31 20 21 22 18 16 13 15 12 5 6 5 0 0 0
1086 1029 908 858 802 800 436 262 130 40 45 93 80 183 94 57 54 66 30 59 61 36 29 44 67 54 46 55 32 22 15 11 20 20 11 12 11 8 4 3 0 0 0
1000 897 818 774 919 599 81 38 69 48 59 64 72 118 66 69 42 17 57 48 58 36 28 25 24 20 53 65 30 21 18 18 13 8 12 7 9 8 5 0 0 0 0
1074 793 674 558 500 177 48 12 11 25 35 50 93 68 82 122 52 46 29 58 39 41 44 30 30 16 21 60 46 22 21 12 17 13 13 12 8 5 5 0 0 0 0
835 771 522 3 1 2 11 18 27 7 24 46 19 60 137 124 61 37 9 22 23 41 45 56 43 33 12 29 46 28 29 34 16 13 9 9 9 13 1 0 0 0 0
620 627 300 2 0 0 0 31 39 3 27 9 1 0 0 23 80 51 54 12 81 16 24 44 31 56 33 10 8 28 27 30 27 17 16 18 15 13 0 1 3 6 7
666 553 315 7 1 1 0 35 29 32 28 10 2 23 0 0 64 78 49 13 64 50 32 15 35 37 48 33 2 0 1 9 43 57 47 26 18 10 0 3 15 28 37
350 383 124 7 11 0 3 5 11 30 7 0 1 52 24 13 0 6 74 41 31 39 72 68 55 52 40 16 12 0 0 0 1 12 131 108 73 38 20 24 44 59 66
151 199 92 73 8 0 1 8 15 69 5 0 0 2 46 75 117 82 0 40 49 15 18 41 57 62 42 30 18 27 0 0 0 0 0 99 199 164 128 109 93 90 86
146 146 95 21 16 9 0 8 15 40 52 25 0 39 39 54 54 66 79 70 55 31 34 109 80 94 100 95 10 1 0 1 0 0 0 0 38 168 271 279 253 240 211
28 111 227 117 16 9 1 4 11 20 20 11 9 55 86 118 109 100 100 66 0 18 108 129 104 97 58 132 76 0 0 7 4 0 0 0 0 15 63 126 228 328 334
12 13 27 94 50 29 13 0 2 2 9 10 22 42 46 60 8 10 0 0 0 0 49 82 140 135 132 112 85 28 46 16 0 0 8 8 24 31 38 15 28 33 42
10 24 25 35 27 33 2 20 17 11 12 7 11 54 28 28 7 7 0 2 4 0 0 0 93 178 168 158 105 113 131 74 38 22 7 8 31 45 29 21 22 28 15
6 16 14 19 51 39 15 4 9 1 4 6 12 12 30 20 15 19 6 4 0 0 0 2 3 68 193 155 168 215 252 137 54 22 5 0 23 24 16 12 18 9 5
32 6 12 0 0 0 5 1 2 1 12 13 4 26 19 17 2 15 10 15 7 0 0 0 1 12 105 113 102 209 210 213 164 32 18 12 3 4 3 3 6 1 0
10 6 11 0 0 2 3 2 0 5 0 0 7 3 0 0 0 0 10 1 1 1 0 6 6 0 8 113 38 65 127 75 169 50 3 0 0 0 0 1 0 0 0
9 7 14 2 0 3 0 0 1 5 2 2 0 0 0 0 2 2 0 0 2 1 13 0 1 48 66 95 65 54 76 50 69 56 11 0 0 0 0 0 0 1 1
5 16 7 8 0 0 6 6 10 9 9 5 1 0 0 0 0 19 41 37 32 40 1 2 0 60 77 86 75 42 123 148 148 127 41 2 0 4 8 7 17 21 10
5 4 7 12 7 1 6 11 4 4 6 4 3 3 4 1 0 8 14 26 36 27 4 2 0 1 5 8 74 32 3 20 104 144 144 148 139 81 36 21 8 14 2
6 24 8 11 34 18 12 0 6 14 17 17 16 13 8 3 0 0 0 0 0 72 57 23 3 0 9 48 91 80 62 79 90 132 37 29 32 52 33 38 41 23 19
15 17 10 8 8 3 4 0 0 0 19 29 24 3 11 16 6 5 5 3 5 8 3 39 3 9 29 13 0 0 4 15 27 24 3 0 0 0 1 32 26 12 25
0 2 8 11 16 3 1 2 0 2 10 1 5 1 0 0 2 27 45 20 5 5 11 10 5 2 0 5 8 9 10 4 1 1 0 0 0 0 0 0 0 0 3
2 6 3 6 3 2 12 21 27 37 20 22 13 12 11 50 21 7 28 35 10 15 6 4 15 6 3 1 1 0 0 0 0 0 0 0 0 1 1 0 0 0 1
18 80 85 70 51 30 61 42 52 38 71 58 128 17 68 63 37 27 22 13 19 7 6 7 20 24 4 1 0 2 5 0 27 3 0 3 1 2 0 0 2 1 0

GFSMA_con_mucape_108.txt.gz
CAPE
1140 1134 1001 1008 835 805 597 348 199 60 5 33 3 51 67 58 51 39 46 22 20 70 38 30 40 34 44 34 27 33 40 18 4 10 6 7 7 21 18 7 4 1 0
1137 931 904 807 738 737 580 471 281 62 17 38 17 38 73 80 38 40 12 4 0 18 45 33 43 40 52 36 42 42 24 20 11 9 8 17 11 20 17 3 0 0 0
1073 775 803 754 659 605 609 368 317 73 40 50 26 40 69 68 64 14 8 0 5 12 30 51 57 69 46 33 18 24 21 34 22 11 9 12 11 3 7 0 0 0 0
1149 900 740 770 370 531 434 406 268 182 67 46 15 35 82 48 53 38 1 0 0 4 23 38 55 61 59 31 14 15 21 25 18 14 16 9 11 0 0 0 0 0 0
954 842 632 520 478 393 345 297 213 92 66 54 78 67 70 16 43 27 1 0 2 0 7 33 35 28 40 48 27 15 14 21 22 13 7 11 10 7 1 1 0 0 0
904 953 706 499 316 312 220 137 51 57 30 35 129 121 24 40 17 16 27 17 19 13 12 12 25 18 20 44 38 23 21 12 14 5 6 9 9 9 7 2 0 0 0
759 853 520 308 408 110 195 31 16 35 60 51 35 72 8 34 33 51 50 35 20 18 25 26 16 7 11 24 30 26 20 39 24 22 19 20 21 17 15 9 0 0 0
798 649 377 170 29 28 33 2 0 16 38 32 9 0 0 0 4 33 32 41 24 7 27 30 18 6 0 0 0 21 9 36 33 13 34 35 28 23 15 1 0 0 0
461 538 244 72 17 0 2 1 3 9 68 19 13 0 0 0 0 35 32 51 26 6 4 3 18 8 5 0 0 0 2 9 30 40 29 31 26 28 17 0 0 0 0
425 415 156 51 1 0 0 0 0 0 21 5 37 9 0 0 0 0 38 41 36 32 9 0 7 9 17 5 0 0 0 0 0 7 72 52 35 15 10 0 0 2 10
308 358 170 38 1 0 3 0 0 0 8 27 2 0 1 0 0 0 0 17 32 3 14 11 1 7 0 15 7 0 0 0 0 0 0 45 121 109 70 67 34 23 20
260 207 98 31 2 0 0 1 0 0 2 31 5 7 0 0 0 0 0 0 0 6 5 13 16 22 12 6 0 0 0 0 0 0 0 1 52 144 177 152 137 140 128
119 145 98 48 10 0 0 12 0 0 1 1 2 11 1 17 8 0 0 0 6 18 13 1 8 1 28 6 0 0 0 0 1 0 0 0 5 26 57 140 232 272 277
57 18 117 22 18 5 1 7 5 0 3 8 2 2 0 0 26 34 0 43 0 0 1 1 1 33 1 14 15 20 8 3 2 12 17 11 3 0 0 1 34 83 148
23 0 31 74 14 1 0 0 1 1 18 8 38 2 6 21 12 26 38 44 0 0 0 0 0 22 29 33 31 48 37 22 16 18 11 5 1 0 0 0 17 31 21
64 0 2 15 33 10 10 4 0 1 5 1 5 12 17 9 0 16 46 0 2 0 0 0 0 24 48 54 54 55 43 42 38 36 30 30 12 0 0 0 6 20 16
37 0 5 11 22 27 8 4 0 2 12 1 3 12 4 5 27 29 31 0 13 2 1 4 65 0 2 34 61 65 56 54 65 71 74 72 36 11 1 0 0 0 7
0 1 35 3 11 11 6 0 0 0 4 0 14 7 8 16 0 0 18 21 18 18 1 0 7 0 16 4 5 29 33 33 75 83 92 81 55 22 12 5 2 5 4
4 8 54 14 0 0 1 5 8 3 1 1 2 0 5 13 3 1 4 2 2 2 0 1 6 3 11 9 8 22 21 18 18 28 42 34 51 18 18 19 20 9 14
12 4 6 5 0 0 1 1 9 11 2 5 24 2 2 3 0 1 16 1 2 0 0 1 0 5 8 2 21 16 11 13 21 37 27 23 28 42 48 45 44 37 36
24 35 4 5 9 10 3 5 5 14 6 5 7 5 2 1 0 0 0 0 7 1 9 0 0 0 0 0 6 14 12 10 16 9 15 30 27 42 43 39 46 23 35
13 8 43 10 4 3 7 0 6 15 16 5 4 6 12 1 0 0 0 0 24 2 30 3 0 0 0 6 0 4 5 11 19 14 10 11 26 42 34 18 4 5 2
12 8 8 3 19 3 2 0 0 10 9 6 5 8 7 12 4 9 3 2 0 2 3 8 3 32 13 12 7 11 20 16 12 13 7 0 1 0 6 3 0 2 1
1 6 5 6 2 5 0 0 0 2 2 8 9 14 7 7 6 16 15 1 4 8 3 5 3 17 8 2 5 6 0 0 1 5 5 0 2 1 0 4 1 0 2
1 10 4 6 4 4 0 2 3 0 0 0 1 6 3 6 9 4 0 17 4 17 17 2 4 9 5 7 2 10 3 1 3 0 0 3 0 0 1 1 3 2 1
4 0 0 0 1 0 6 4 8 14 15 22 19 15 11 4 11 12 24 25 21 7 24 3 10 16 4 8 21 2 0 1 3 4 3 1 3 3 1 6 6 5 3

GFSMA_con_mucape_111.txt.gz
CAPE
862 858 929 673 455 351 309 267 116 93 74 14 0 11 34 31 40 44 90 146 202 328 202 31 38 31 28 43 53 34 19 16 22 16 12 24 23 22 13 7 6 4 3
707 661 713 733 652 544 362 278 174 58 25 1 0 6 17 52 42 41 59 109 118 106 137 95 28 36 44 47 52 44 28 21 16 18 20 29 23 20 12 5 0 0 0
888 755 679 593 590 563 488 198 75 40 23 8 0 24 24 57 41 38 43 53 19 3 2 36 42 64 50 53 49 45 31 31 13 18 24 14 17 11 5 0 0 0 0
831 695 651 563 520 524 379 219 139 94 68 31 2 39 32 82 53 36 37 31 2 0 0 12 42 59 63 60 36 14 8 14 15 17 21 22 11 6 0 0 0 0 0
939 717 526 532 514 437 340 240 205 102 102 23 39 45 9 58 48 32 35 7 0 0 0 0 31 35 48 52 37 20 10 17 13 19 15 9 15 12 3 1 0 0 0
733 677 548 487 369 321 215 151 79 84 82 32 68 39 12 48 27 36 17 4 0 0 0 4 30 22 33 33 45 18 20 19 15 14 7 6 20 15 10 4 2 0 0
587 610 594 413 357 313 260 443 157 98 108 41 50 75 23 44 5 5 8 0 0 0 0 16 22 11 17 29 49 36 18 21 14 22 12 13 28 29 26 10 3 3 0
501 725 695 482 358 208 181 45 305 175 39 16 48 86 25 10 23 25 22 3 4 6 7 5 17 17 6 4 20 45 35 24 23 20 26 32 20 21 18 11 10 7 0
384 478 638 416 199 184 45 20 162 64 25 30 47 34 9 0 8 19 42 4 15 10 12 17 17 6 1 0 0 3 8 5 42 50 29 23 28 19 10 3 1 3 0
409 725 664 359 187 46 5 88 5 2 7 14 39 3 17 1 0 0 0 0 18 16 14 17 8 0 0 0 0 0 0 0 0 15 35 23 24 17 13 8 6 7 0
457 417 394 275 64 21 0 0 2 2 7 11 25 0 6 0 0 0 0 0 1 16 6 10 7 0 0 0 0 0 0 0 0 0 2 66 95 76 62 60 54 46 41
241 335 304 187 23 15 0 0 0 1 5 11 10 28 26 2 0 25 0 0 0 11 29 1 0 2 4 3 4 0 0 0 0 0 0 0 58 144 144 139 142 146 136
219 265 284 106 119 17 0 0 0 3 1 18 13 5 11 9 12 8 0 0 0 0 34 23 5 0 0 1 0 3 3 1 0 0 0 0 0 26 106 172 216 233 247
316 155 219 126 46 4 1 0 0 9 10 0 2 3 6 8 26 0 0 0 0 0 0 0 16 7 0 6 3 2 0 0 0 0 2 5 5 5 18 49 99 160 222
195 151 201 153 43 3 3 0 0 5 5 0 0 1 9 14 14 10 0 0 0 0 0 5 0 8 10 5 2 18 17 18 18 13 17 20 21 18 15 9 3 7 20
359 156 147 89 49 0 5 14 6 0 6 10 14 3 3 8 9 2 22 35 6 1 0 2 2 2 3 13 23 33 23 35 27 25 32 33 21 19 15 16 17 12 6
449 128 108 190 151 25 0 10 3 6 13 1 4 10 11 21 4 10 2 9 29 20 1 3 0 2 4 26 57 21 33 40 37 38 31 29 42 51 59 45 30 21 17
323 163 30 8 49 5 13 10 6 12 7 13 4 22 7 10 20 6 14 31 101 0 35 27 0 16 15 14 13 20 50 41 33 54 50 65 64 49 52 71 81 59 23
307 162 42 14 48 35 22 29 4 6 0 2 4 15 8 8 17 15 10 0 1 36 6 30 0 14 5 11 1 19 5 6 12 30 45 65 64 57 30 24 15 29 29
322 160 17 47 27 23 29 18 8 10 10 0 0 0 23 0 15 14 12 4 16 2 3 2 5 4 4 8 3 14 10 11 17 28 15 30 31 27 34 43 43 52 35
165 68 17 25 17 3 5 6 6 3 4 5 5 9 16 5 6 12 8 0 0 4 15 2 8 1 1 18 6 14 5 23 37 21 21 29 6 13 18 28 24 17 3
256 39 0 5 7 4 5 0 5 16 16 11 20 8 11 0 0 0 0 0 3 9 6 0 0 0 1 8 1 0 14 20 17 5 6 14 26 21 4 7 11 11 5
95 6 0 0 5 5 0 0 0 7 2 5 7 10 0 3 0 0 0 0 0 0 9 13 6 4 0 2 14 8 14 18 0 2 28 15 0 2 17 8 3 11 4
217 73 3 0 0 5 1 0 0 1 15 15 12 13 18 11 11 6 23 7 1 11 16 23 0 4 3 1 8 4 4 1 18 8 3 0 1 2 3 3 1 2 0
23 94 4 1 1 0 4 4 13 0 3 6 4 7 8 5 7 21 13 3 33 23 2 15 12 11 13 7 2 16 10 7 4 23 0 1 0 1 5 2 1 2 6
22 1 26 2 29 29 39 20 36 46 30 15 15 17 9 9 10 17 0 1 7 10 11 29 1 5 18 12 0 15 4 1 0 0 1 0 0 5 3 0 1 2 0

GFSMA_con_mucape_114.txt.gz
CAPE
1045 941 695 463 297 178 226 281 269 272 209 74 54 13 0 0 20 76 96 133 193 414 438 121 21 13 20 26 65 56 30 32 25 14 21 30 39 32 30 18 16 6 8
977 950 660 552 443 337 292 331 342 250 189 105 61 0 0 0 2 25 49 60 116 194 247 277 37 4 20 25 71 58 50 39 9 19 19 23 40 32 24 12 4 7 7
863 812 850 794 759 389 389 352 308 335 212 66 0 0 0 16 23 15 36 45 89 136 117 164 144 75 30 39 50 55 51 39 14 17 16 20 26 25 14 10 5 4 5
871 732 575 613 633 548 472 416 336 235 89 0 0 21 0 19 19 26 20 53 58 77 67 35 41 46 62 82 45 45 31 32 23 24 25 16 20 25 13 0 2 2 3
831 815 654 568 517 506 504 490 344 253 123 23 50 45 16 47 47 87 50 45 45 41 13 7 7 21 35 64 64 47 37 16 24 21 24 12 16 22 20 9 3 2 0
779 830 725 619 499 504 458 383 362 337 164 106 57 18 30 47 28 73 24 24 42 17 0 4 19 19 30 43 62 41 44 25 24 31 15 14 5 19 19 17 5 0 1
621 695 700 537 456 391 312 361 318 267 259 213 68 16 49 4 32 41 40 15 20 3 0 8 16 11 27 31 46 59 33 29 25 14 15 21 28 29 26 9 7 5 2
383 489 666 431 454 446 288 264 471 481 220 177 88 68 49 36 29 50 27 14 13 5 1 3 9 17 14 22 28 60 56 25 21 17 41 26 36 34 23 9 6 3 5
331 425 618 497 442 385 271 413 112 381 299 66 114 78 20 15 10 51 29 14 5 1 0 1 16 30 16 11 7 9 15 18 37 46 43 39 29 21 20 8 8 9 6
339 482 539 578 459 351 206 120 114 155 102 13 42 14 15 21 35 4 2 9 1 1 0 0 16 15 11 6 4 0 0 0 1 28 42 38 30 29 20 15 8 1 2
644 405 466 539 532 411 75 48 51 278 163 51 10 10 27 21 0 0 0 1 0 0 8 6 8 5 0 0 0 0 0 0 0 0 35 62 68 66 65 65 64 37 48
845 636 416 487 534 362 188 62 19 118 35 0 16 9 11 0 15 8 0 0 0 3 0 28 13 5 0 0 0 0 0 0 0 0 0 2 82 123 128 130 142 86 119
940 941 578 535 533 256 97 10 0 5 0 3 7 16 18 11 1 8 15 0 0 0 0 2 25 23 7 0 0 0 0 0 0 0 0 0 0 45 122 156 193 222 234
1051 982 426 347 325 189 4 2 6 0 0 1 3 13 45 32 9 6 0 0 0 0 0 0 53 25 19 24 19 8 7 15 17 3 0 0 0 0 24 90 144 178 210
916 644 310 355 368 142 3 225 35 1 1 1 7 2 8 11 2 17 12 2 0 0 0 0 0 51 38 24 18 29 19 24 31 15 2 1 1 14 9 7 20 51 110
772 479 245 231 269 113 191 52 18 14 0 1 13 3 2 5 12 12 20 0 2 0 0 0 1 14 31 19 14 8 12 21 30 46 44 37 24 21 23 19 17 20 19
770 529 353 264 177 149 24 53 45 0 2 0 0 7 11 1 26 9 9 12 38 0 0 0 15 27 1 0 2 3 14 17 33 30 50 48 42 49 38 33 36 40 40
712 684 514 161 168 202 63 46 4 42 4 21 0 11 5 28 10 13 21 1 0 0 3 0 0 26 5 0 17 5 11 28 10 32 52 38 36 46 41 43 36 23 26
742 673 479 182 137 123 58 80 8 6 1 2 2 15 14 8 13 22 34 0 8 17 18 42 1 10 0 0 9 0 13 19 8 34 39 35 37 42 37 37 37 29 18
625 567 534 177 76 55 66 21 33 9 11 7 9 18 19 27 17 8 15 13 5 6 17 6 0 0 6 1 12 25 16 30 9 13 7 14 8 19 13 24 26 37 54
407 400 360 239 46 10 52 72 24 9 4 25 2 0 3 3 3 9 8 13 2 14 23 12 48 10 48 22 12 30 24 17 3 23 20 35 13 30 25 25 10 16 9
432 263 375 378 46 0 7 11 12 22 14 38 27 6 14 22 9 11 19 14 1 17 0 0 4 6 12 1 5 3 7 15 30 1 13 8 21 14 6 7 5 14 13
308 256 310 78 16 1 0 1 0 7 7 9 4 13 3 4 4 5 5 0 0 0 0 0 3 2 0 0 2 7 0 0 2 13 4 1 3 1 13 12 13 6 6
201 313 285 34 26 0 0 0 0 0 6 5 5 7 9 11 7 0 0 0 0 0 0 0 0 10 2 6 4 3 1 5 5 8 10 12 1 14 18 13 1 10 2
14 18 92 20 40 10 0 0 0 0 0 5 5 0 2 6 7 11 8 0 0 3 3 8 19 20 9 2 3 14 8 4 4 0 8 5 7 5 6 16 2 8 7
2 3 9 10 2 6 3 2 3 0 12 13 15 8 16 18 24 39 41 10 25 7 7 7 7 6 8 2 7 10 10 7 0 3 0 0 8 8 8 6 7 0 3

GFSMA_con_mucape_120.txt.gz
CAPE
1352 1076 999 1069 1138 888 605 500 399 346 298 151 96 32 3 0 0 4 123 206 225 471 664 517 249 115 17 27 46 45 40 38 25 24 20 33 38 35 36 27 25 24 24
1788 1040 1015 857 933 966 724 485 323 196 143 59 101 62 27 13 0 0 37 89 104 158 338 499 257 134 16 2 44 56 54 53 38 17 34 39 36 33 22 11 30 20 16
1509 1199 987 905 764 737 724 533 347 172 117 68 98 101 69 8 2 0 1 28 41 82 123 265 329 257 109 17 48 61 57 61 50 38 50 48 31 32 18 35 21 13 10
1105 813 843 915 801 670 488 360 242 120 87 100 150 150 105 60 2 0 0 0 3 53 60 143 134 143 164 131 45 38 42 57 47 34 45 33 32 33 30 33 18 12 9
912 895 837 747 843 729 573 438 338 242 175 152 185 147 137 64 6 0 0 0 0 15 66 91 77 63 87 145 145 48 51 34 33 44 45 32 33 35 42 26 15 12 8
702 732 724 743 693 704 588 511 437 439 333 270 231 186 123 47 21 1 4 1 15 45 45 61 34 89 68 91 149 104 65 36 28 55 45 28 30 39 30 27 13 5 4
530 603 691 695 720 671 556 606 637 399 541 183 324 127 97 59 46 31 44 18 45 53 73 76 68 75 54 28 106 124 81 46 46 36 49 50 45 48 34 36 15 5 4
861 793 955 994 929 796 666 600 285 129 215 159 125 48 55 13 52 18 16 31 32 42 35 20 72 79 30 17 46 88 94 85 50 35 58 60 44 34 39 36 28 11 5
1354 1119 1119 1173 772 776 660 530 124 278 31 35 26 44 49 19 12 17 11 11 20 49 12 47 79 58 18 21 34 47 55 58 69 73 77 70 51 38 35 35 35 23 13
1625 1495 1383 1263 681 652 700 341 167 94 151 62 141 48 65 22 27 5 3 1 15 16 27 40 57 42 24 22 37 40 39 39 32 59 72 80 53 38 34 38 48 33 21
1474 1609 1425 1205 752 597 565 359 157 281 84 90 74 14 107 64 57 43 8 15 27 25 27 31 35 27 24 28 36 34 38 24 23 13 33 52 60 51 35 43 46 43 25
1330 1454 1288 976 750 544 454 576 423 150 82 83 153 108 12 31 45 35 25 9 0 5 10 41 48 29 8 26 33 25 30 19 16 10 8 35 40 50 42 32 32 30 30
940 970 778 961 788 649 415 244 593 522 295 90 49 74 73 21 35 45 53 13 0 2 6 14 30 25 12 23 25 38 21 17 12 4 0 1 15 28 35 36 50 87 93
601 274 129 527 814 747 527 249 354 369 282 276 134 48 165 56 10 44 9 13 1 18 0 27 10 8 2 20 17 25 27 19 7 0 0 0 0 0 23 23 28 60 98
229 33 85 344 628 741 576 430 269 294 288 240 161 71 56 7 5 3 11 9 6 8 0 1 1 8 11 4 3 28 23 15 12 4 1 0 4 6 0 1 36 60 67
265 146 177 510 494 674 592 570 494 564 308 272 68 40 54 3 0 0 36 32 6 0 46 0 0 0 22 8 2 42 49 36 27 12 9 7 12 21 23 21 9 1 33
913 671 622 458 472 522 628 629 609 731 437 307 64 7 9 0 0 4 9 0 4 1 35 16 1 0 0 0 3 15 26 42 33 25 9 19 18 20 34 35 27 8 9
603 711 591 493 451 401 366 566 958 392 324 188 2 4 22 1 0 0 3 1 3 1 18 23 3 5 9 5 3 42 54 56 48 54 30 20 19 11 30 35 22 21 11
629 384 403 336 326 168 197 378 336 217 320 193 9 2 2 7 3 10 5 4 9 11 6 3 0 0 1 0 0 0 16 25 42 23 13 8 5 6 1 4 29 36 20
205 337 376 259 360 135 151 188 230 579 173 55 24 7 1 3 6 0 4 5 7 6 6 0 10 2 0 0 0 0 0 29 16 16 17 7 9 22 6 10 5 6 18
274 147 317 504 435 80 86 107 409 150 145 71 41 23 11 6 7 2 3 16 1 8 1 3 0 0 0 0 0 0 0 32 36 3 14 9 7 7 7 14 6 5 8
97 138 43 13 55 78 171 165 132 93 84 82 43 58 24 16 23 31 33 23 16 2 11 0 5 11 0 11 4 0 0 0 0 2 0 0 10 13 13 3 9 21 5
20 59 36 35 39 4 92 41 71 83 66 48 30 29 21 22 18 9 15 14 23 7 11 2 17 3 9 4 23 15 3 7 7 1 19 6 5 1 3 3 0 2 14
0 11 4 13 19 11 36 89 90 55 93 51 50 20 32 30 32 12 22 23 26 8 10 6 7 12 13 17 2 18 3 8 9 5 10 3 21 16 1 4 8 6 1
2 2 4 11 26 31 31 73 26 56 32 36 14 21 46 15 15 9 9 17 1 15 4 19 9 23 12 6 0 0 10 10 1 3 14 0 0 0 2 1 9 15 6
0 0 3 0 0 0 0 0 0 30 18 32 2 37 0 0 1 0 18 17 9 13 7 6 10 13 3 0 7 12 13 1 0 0 5 0 7 4 2 2 1 5 2

GFSMA_con_mucape_123.txt.gz
CAPE
1278 1562 1767 1665 1761 1718 1467 1229 885 1033 937 635 472 407 396 513 622 633 776 199 115 322 742 786 485 294 247 183 212 125 41 18 26 30 26 36 34 42 29 27 29 34 26
1154 1122 1317 1500 1259 1487 1297 1122 764 850 907 622 301 19 111 250 293 373 566 577 108 121 274 672 368 244 188 49 126 37 41 43 44 28 38 40 39 33 34 23 31 35 22
1228 966 1006 1137 1278 1034 963 673 342 204 680 259 86 6 141 171 179 153 318 559 319 68 98 185 273 332 145 52 86 38 46 41 45 42 52 38 31 33 26 25 30 29 17
1510 1478 1464 891 993 859 921 775 534 358 535 492 419 234 169 122 142 69 75 199 385 444 176 83 118 226 188 141 39 12 30 60 56 63 50 44 36 33 31 28 33 26 17
1415 1383 1437 925 821 778 764 710 608 375 202 112 319 302 131 72 117 41 49 70 138 190 292 137 83 87 79 129 181 17 26 40 53 38 40 48 39 36 34 27 27 18 8
1310 1435 876 754 634 762 721 633 488 374 288 252 153 120 141 105 79 148 90 85 152 178 264 320 425 103 43 98 147 212 79 52 35 48 36 34 42 32 40 33 23 13 10
1127 969 778 662 560 587 690 648 587 404 405 215 320 177 194 112 97 39 121 102 131 154 252 210 430 84 51 57 105 189 136 62 41 40 72 59 46 31 35 39 24 7 11
1095 1050 772 515 480 518 622 473 413 316 403 161 123 49 19 22 12 104 34 71 198 292 196 208 132 64 77 181 162 131 161 123 52 54 83 67 41 38 38 35 38 15 6
1016 993 919 654 420 519 821 561 411 695 297 80 188 364 51 114 13 5 39 87 90 127 152 126 104 21 51 171 131 71 39 44 60 77 77 78 48 39 39 40 37 33 19
1197 1126 885 586 511 700 671 630 405 635 458 145 86 149 128 47 80 74 30 42 62 134 67 84 105 15 57 157 95 19 17 28 37 66 74 85 70 41 38 32 39 38 28
1245 1026 744 1055 845 872 785 365 414 644 437 347 126 66 65 18 24 60 86 36 45 46 73 30 131 32 51 147 114 24 28 28 44 40 65 91 78 44 35 34 38 43 35
1441 1330 945 1083 1088 752 806 512 644 666 403 256 235 143 80 62 37 37 15 37 21 30 80 23 11 27 18 39 29 7 19 30 40 48 41 61 74 65 52 48 39 44 44
1364 1314 1257 1005 931 913 824 744 609 698 527 401 386 335 200 267 202 54 81 23 10 44 16 0 1 17 28 14 33 1 14 28 32 29 41 41 25 28 33 44 42 39 37
1290 1106 840 852 855 823 734 698 630 493 290 297 256 155 94 79 134 61 33 28 14 10 0 0 3 10 21 9 29 13 20 26 32 23 25 19 9 13 19 20 24 29 46
1105 1003 886 854 617 431 212 280 603 659 449 279 482 165 75 40 10 16 9 20 36 0 0 0 1 7 13 4 13 7 41 39 40 31 21 11 8 0 5 14 22 27 36
914 864 840 664 589 426 125 181 516 532 514 237 231 181 185 146 57 65 58 19 46 6 0 6 0 1 23 5 5 5 10 16 16 22 23 15 6 3 2 2 2 11 43
724 811 1018 656 317 173 106 234 644 292 504 428 243 197 273 213 62 19 9 0 0 0 0 1 0 3 14 8 4 18 12 0 29 54 34 20 16 9 9 11 15 18 18
113 442 631 732 445 180 50 199 324 294 477 473 482 359 161 210 80 3 2 0 0 2 0 0 0 0 0 14 0 0 1 7 50 62 51 31 20 14 12 21 25 25 29
497 487 408 398 537 724 686 382 313 186 154 431 504 639 291 147 12 2 0 5 0 0 0 17 1 2 2 0 0 0 0 15 51 43 40 47 43 22 8 4 2 15 32
343 481 385 356 309 330 538 477 211 106 79 170 519 246 143 137 26 14 0 2 3 0 2 7 2 4 0 0 0 0 0 1 22 26 24 45 42 25 8 5 4 3 20
281 203 179 220 251 80 70 128 30 131 162 92 375 221 125 101 38 13 8 6 2 0 0 4 3 6 0 0 0 0 0 0 0 6 29 44 33 14 15 16 6 8 3
49 123 144 132 145 138 69 58 92 56 61 81 198 136 162 60 53 17 11 12 5 7 6 9 1 2 2 0 0 0 0 0 0 13 0 2 21 0 11 17 8 8 4
17 7 1 21 23 23 18 35 31 93 69 60 68 88 66 75 66 35 17 21 15 17 22 18 3 1 12 2 13 0 0 0 23 0 15 0 0 7 17 7 11 7 19
3 1 5 4 4 6 3 32 0 2 27 44 50 55 41 60 65 65 38 33 4 27 6 10 11 4 2 8 11 32 0 0 6 1 3 4 6 2 3 3 8 5 9
0 1 4 0 0 0 0 0 15 20 0 2 43 23 42 45 58 45 33 44 11 19 16 32 4 8 27 11 2 7 0 7 1 0 0 2 2 2 5 2 2 7 4
0 0 0 0 0 0 0 0 7 0 9 21 3 18 39 22 6 43 6 46 0 2 41 25 1 27 4 20 13 12 11 11 0 1 3 6 3 3 0 0 2 2 3

GFSMA_con_mucape_126.txt.gz
CAPE
2238 2192 2200 2012 1953 1836 1729 1575 1400 1527 1382 1214 1110 1067 1045 959 779 646 743 176 157 167 555 337 486 335 195 213 228 294 169 50 38 16 30 30 34 42 33 32 28 29 22
2203 2197 2243 2109 2143 2082 1793 1625 1447 1397 1208 1074 979 857 690 598 606 519 552 713 64 70 253 655 479 351 183 120 266 237 138 46 44 29 36 34 32 31 29 32 29 27 24
2243 1864 2015 2082 1874 1932 1884 1750 1493 1324 1180 1050 892 861 626 529 427 510 508 550 363 36 78 222 550 243 164 205 251 178 57 47 43 48 43 43 38 25 32 29 31 29 27
2031 1829 1647 1763 2109 2073 1959 1629 1391 1163 1246 1111 1044 905 704 615 638 568 491 453 527 495 108 60 127 204 191 304 112 58 49 60 53 51 53 45 38 29 31 29 32 28 27
1951 1671 1400 1364 1945 1327 1670 1392 1041 1251 1180 1296 1038 969 819 698 694 527 460 353 430 346 393 94 44 74 99 137 101 89 30 21 43 38 55 52 44 35 31 30 30 30 24
1479 1567 1258 1220 1451 1479 1550 1346 882 709 1185 1241 837 825 799 792 690 657 515 340 243 333 470 430 432 177 49 57 116 123 63 8 26 26 26 48 55 39 31 33 28 33 19
1772 1441 1455 1287 1139 1348 1157 1153 908 1013 878 944 914 601 456 555 483 459 684 454 378 394 448 421 592 607 253 51 56 107 133 91 52 40 61 55 55 36 32 34 30 31 24
1513 1394 1377 1161 1112 1462 1284 1146 1155 938 912 678 480 425 627 474 299 165 488 460 586 488 412 448 576 419 422 412 92 86 177 234 180 155 89 60 48 35 40 35 32 30 19
1789 1551 1752 1876 1503 1408 1127 1042 945 691 570 463 843 442 394 216 183 359 184 397 388 402 379 323 352 307 384 217 39 14 71 82 127 167 87 51 59 38 41 40 33 38 19
1686 1791 1755 1796 1669 1135 1367 912 792 831 729 358 506 837 487 374 204 160 352 59 81 155 184 245 274 277 178 155 31 35 45 62 76 74 75 67 65 53 46 42 33 35 39
1707 1721 1817 2048 1857 1182 1269 1053 672 831 1183 1383 942 619 558 680 450 217 205 370 160 172 275 257 151 178 181 173 111 64 73 61 69 15 48 87 67 51 47 49 44 45 43
1646 1988 2172 1970 1646 1288 1140 1250 876 1077 1319 1548 1156 639 453 469 314 229 193 194 173 134 148 202 154 308 331 286 72 77 51 44 14 5 22 40 62 52 41 48 53 45 52
1706 1804 2124 1964 1412 1206 1044 1222 1459 1033 1268 1383 1514 1025 678 294 211 206 266 254 194 169 151 226 270 209 147 58 59 47 52 27 7 19 18 26 36 47 33 40 44 44 36
1610 1663 1887 1891 1646 1015 1293 1631 1848 1582 1600 1791 1509 1015 829 708 323 511 374 433 249 201 164 102 124 156 121 17 28 28 14 14 3 20 35 31 30 31 25 9 19 29 33
1189 1352 1428 1410 1584 1079 1275 1313 1125 896 965 1517 1854 1750 1229 960 807 433 385 556 371 123 16 4 16 67 82 11 5 5 20 1 2 6 24 25 31 34 23 15 13 15 17
642 695 1171 1250 1499 1228 819 829 636 777 775 716 761 893 560 329 546 609 378 170 105 42 11 30 32 15 30 2 2 1 17 14 13 23 17 24 21 34 27 18 17 21 17
54 276 791 986 1096 1039 986 1159 681 572 527 459 293 397 508 225 382 190 110 258 56 26 29 110 21 13 3 2 0 7 7 3 20 35 26 34 34 30 24 16 12 13 15
128 190 327 564 417 530 1170 896 576 293 213 163 286 514 471 308 202 120 102 233 133 14 58 12 15 0 1 0 0 0 10 6 10 35 38 50 47 46 51 41 19 6 1
146 254 409 238 250 316 611 568 420 160 79 86 196 319 365 309 323 205 316 121 130 14 67 53 0 0 1 0 1 9 3 2 3 20 22 23 63 98 79 71 52 29 15
348 398 363 501 361 244 107 164 356 176 297 329 243 348 126 70 305 337 350 155 96 82 50 42 0 0 2 0 5 0 0 0 0 10 5 2 18 74 65 51 32 9 22
95 336 332 421 356 392 229 176 245 282 252 293 250 265 222 136 122 324 242 96 66 94 34 11 0 5 2 0 1 1 0 0 0 0 5 16 30 30 44 49 43 34 20
8 101 227 119 229 54 51 73 66 61 105 112 44 79 169 143 100 223 110 106 56 92 26 27 6 6 0 6 10 2 0 0 0 0 0 2 45 44 48 58 43 35 3
2 25 25 6 0 2 1 5 39 43 98 68 43 67 13 49 28 120 12 35 31 12 10 17 42 13 0 1 11 13 0 0 0 0 0 0 0 18 43 58 28 21 27
0 0 0 0 0 0 0 3 2 0 0 26 1 5 19 11 0 16 40 32 46 31 34 16 8 19 30 75 6 8 10 3 3 5 0 0 0 0 15 34 34 28 20
0 0 0 0 0 0 0 1 0 0 2 7 0 1 2 2 3 8 52 49 68 55 53 22 45 15 14 19 1 8 4 0 0 5 6 0 0 0 0 0 9 6 5
0 0 0 0 0 0 0 0 0 0 1 0 3 0 0 0 0 15 37 11 86 85 66 18 7 44 8 5 4 13 21 10 8 17 1 0 0 0 1 0 7 1 0

GFSMA_con_mucape_129.txt.gz
CAPE
3002 2521 2587 2161 2048 1903 1792 1823 1477 1360 1499 1300 1118 1153 1318 1312 1122 776 894 219 266 634 794 466 223 207 196 126 165 211 214 215 131 59 45 39 34 32 36 12 11 4 23
3149 2522 2462 2478 2324 2201 2153 2035 1678 1480 1620 1350 1238 1061 1201 1179 936 1189 642 247 116 117 411 913 573 291 241 120 126 230 222 185 64 64 43 36 34 34 28 18 25 4 26
3101 2687 2676 2520 2200 2468 2455 2193 1805 1902 1548 1412 1278 1263 943 836 752 849 678 414 169 99 85 308 701 592 310 219 66 309 210 114 35 58 47 38 37 36 30 24 24 23 24
2818 2823 2311 2549 2589 2414 2391 2361 2002 1886 1783 1422 1362 1256 1156 1007 1013 897 867 906 285 292 107 25 310 499 421 201 76 74 142 116 68 44 33 32 36 33 29 31 26 23 5
2567 2492 1950 2192 2959 2221 2453 2228 2012 1904 1490 1440 1415 1284 1109 1103 1117 660 816 789 848 551 599 165 25 199 116 187 344 106 106 66 78 43 28 36 39 36 32 34 28 26 29
2199 2787 2111 2105 2105 2320 2089 1930 1707 1625 1627 1275 1099 1166 1122 1123 1004 997 759 630 586 601 614 335 215 92 58 43 244 325 62 55 40 26 26 31 43 33 31 34 29 27 38
2179 2149 2100 1813 1920 1796 1812 1678 1477 1574 1510 1477 1470 1229 1552 1370 1131 928 1000 835 624 504 634 725 712 701 85 0 56 227 68 66 48 49 78 38 39 32 31 29 34 33 38
2448 1839 1784 1981 1864 1896 1930 1455 1238 1487 1530 1444 1311 907 697 687 1059 975 810 810 1112 546 462 517 468 547 664 286 237 52 211 236 282 138 91 49 27 32 30 31 37 35 39
2172 1701 1563 2141 1602 1498 1842 1359 1376 1348 1153 1044 1175 850 550 262 95 880 794 576 895 798 712 500 478 530 483 648 326 54 12 38 97 151 132 84 31 23 31 38 33 35 42
2240 1974 1706 2021 2077 1919 1961 1898 1129 1360 991 813 1137 1416 1536 948 354 289 675 546 469 589 502 496 445 469 423 551 310 222 26 13 42 68 116 165 69 38 27 41 36 34 41
2421 2377 2139 2186 2527 2521 2235 2376 1274 1300 1184 1228 823 785 1246 1500 1104 748 450 489 499 258 193 235 304 479 353 320 467 237 12 30 4 8 71 144 171 77 29 45 40 38 45
2077 2143 2235 2240 2534 2691 2175 1993 2026 874 1257 1260 1240 1063 1175 815 733 800 803 705 399 416 240 229 485 318 344 496 171 99 3 25 15 48 81 97 123 98 41 38 46 46 51
1923 1999 2115 1987 2120 2405 2179 1829 1934 1520 1261 1586 1028 1192 1083 740 710 783 631 651 295 330 250 273 211 343 204 409 320 46 22 4 33 18 99 86 59 18 19 30 43 52 51
1794 1927 2283 1872 1512 1723 2054 1828 1691 1584 1499 1606 1381 913 1306 1349 1003 642 447 405 543 631 612 229 264 338 235 221 202 50 42 12 28 32 53 59 15 21 21 15 16 25 35
1342 1657 1434 1570 1483 1151 1382 1535 1452 1735 1647 1570 1806 1848 1365 860 646 885 920 829 712 537 619 251 273 281 252 172 105 86 145 2 18 26 43 56 26 22 31 22 12 11 11
637 638 1069 975 1300 1188 960 736 914 1365 1354 1428 1432 1605 1201 1221 1296 1267 1228 825 810 656 571 338 59 155 207 90 62 46 51 5 11 12 22 27 6 37 27 25 19 7 5
0 8 80 294 839 989 982 747 703 1055 1238 1043 975 1019 1312 1690 1168 1306 1088 1030 714 615 221 231 62 64 148 191 21 4 6 2 5 3 4 23 5 4 56 45 32 26 18
4 29 95 107 301 323 404 533 717 829 790 859 775 727 547 607 897 622 441 358 499 233 129 43 85 82 140 98 64 0 0 5 0 2 3 3 4 43 62 60 50 35 20
21 58 68 108 215 368 336 330 507 618 645 859 641 737 349 517 573 248 170 179 315 196 88 85 97 64 21 54 11 0 0 0 0 2 16 6 4 57 56 60 48 37 21
16 44 106 230 255 243 113 222 251 487 437 539 335 471 235 182 167 176 195 264 187 139 177 164 125 59 2 0 0 0 0 0 4 5 4 4 25 35 49 57 60 48 41
13 76 111 140 142 201 217 318 183 244 393 416 263 288 165 214 276 269 428 394 215 93 150 119 308 55 0 0 0 0 0 1 2 1 0 2 0 1 14 37 29 24 46
3 13 19 4 50 124 139 20 22 122 169 285 210 219 197 134 38 37 59 86 117 93 175 56 35 54 0 0 0 2 0 6 5 0 2 0 1 0 0 19 8 0 60
0 0 0 0 0 0 2 0 0 26 15 19 10 82 84 47 46 16 19 60 48 55 47 76 56 24 0 6 15 12 3 3 3 4 1 0 0 0 1 0 0 5 20
0 0 0 0 0 0 0 0 0 0 0 0 0 1 10 0 23 11 11 26 22 34 21 63 65 26 24 30 26 12 5 3 6 1 3 6 0 0 0 6 7 15 31
0 0 0 0 0 0 0 0 0 0 0 0 0 0 3 4 0 0 0 0 1 0 32 73 60 45 64 57 39 8 17 10 19 9 3 10 9 0 4 0 1 3 3
0 0 0 0 0 0 0 0 0 0 0 0 0 0 0 2 3 3 0 0 0 0 0 45 53 55 76 62 42 22 9 21 7 15 12 10 16 6 6 10 0 0 3

GFSMA_con_mucape_132.txt.gz
CAPE
2190 2170 2004 2082 1827 1796 1465 1346 1188 1042 1104 1150 1049 1057 1013 615 794 725 257 152 629 833 881 485 310 152 44 79 139 178 199 154 165 128 56 59 49 37 24 25 19 3 26
2146 2333 2262 2055 1869 1717 1584 1548 1351 1194 1192 945 1177 1062 1109 775 566 662 534 257 421 665 768 1010 623 189 148 158 144 142 214 205 226 150 41 43 39 34 36 17 14 9 9
2363 2347 2280 2172 2052 1804 1803 1692 1717 1249 1190 1217 1106 1001 1036 955 939 563 572 292 208 242 243 572 588 646 655 349 187 140 337 207 202 169 66 35 38 32 31 23 20 6 28
2412 2465 2303 2051 2179 2148 1967 1673 1409 1243 1195 1181 943 1014 794 661 803 731 536 576 305 206 104 71 208 547 573 654 283 178 323 270 167 129 51 28 21 36 30 33 23 18 19
2448 2537 2117 2267 2090 2184 2141 1970 1709 1475 1411 1271 1012 1108 730 783 835 745 572 522 393 246 187 162 92 198 253 394 540 172 173 265 199 160 81 23 27 17 32 35 28 6 5
1779 2180 2227 2213 2470 2085 2073 2104 2014 1927 1560 1236 1082 954 894 825 901 852 638 672 503 354 286 254 142 81 177 159 296 453 298 181 171 106 104 46 29 18 26 33 27 8 9
1684 1810 2354 1960 1731 2202 2040 2060 2001 1773 1545 1317 1156 1098 1016 850 696 727 753 545 545 425 504 301 113 70 44 97 83 471 476 336 293 195 128 33 26 17 24 20 23 22 7
1767 1682 2220 2004 1469 1335 1823 1735 1768 1262 1123 1308 1132 961 758 808 888 803 837 730 531 428 336 293 288 205 188 80 47 99 498 641 616 412 152 20 11 14 15 31 26 26 29
2046 1709 1705 1866 1387 1613 1360 1322 1943 1384 1031 999 1274 697 446 279 294 719 714 671 568 562 460 311 279 259 176 167 97 45 72 126 193 394 191 51 15 13 11 19 29 26 36
1876 1731 1415 1327 1576 1013 1142 1304 1496 1056 905 704 1054 1094 822 1012 467 423 801 646 490 388 538 514 322 231 217 196 147 100 103 47 65 75 124 106 77 37 31 30 26 17 38
1394 1776 1337 1291 1704 1532 906 1446 1324 1142 1025 750 756 635 657 713 1020 850 306 606 471 315 388 487 397 220 243 194 151 162 191 94 41 49 64 87 116 85 62 57 58 23 39
1596 1715 1551 1322 1378 1700 1403 1136 1481 1383 990 784 1171 488 590 615 687 817 548 284 324 347 230 175 175 162 144 211 186 166 136 128 67 61 37 33 54 93 102 100 64 56 42
1055 1054 1692 1715 1608 1857 2024 2006 1543 1292 1597 794 838 721 548 671 776 699 378 288 334 249 221 189 222 275 244 179 140 148 87 100 69 47 70 35 47 58 67 70 64 82 43
75 0 91 1214 1631 1750 1890 1875 1821 1425 1213 1025 963 829 889 797 742 478 404 309 183 125 118 96 93 179 192 152 166 143 53 57 59 21 59 39 34 45 64 73 52 19 29
1 0 510 1038 1033 1449 1641 1853 1645 1641 1521 1256 1206 1069 850 793 682 655 463 266 140 59 53 153 134 76 131 153 135 71 42 10 41 13 33 16 16 53 37 48 8 5 7
47 31 232 450 805 1135 885 1065 1187 1372 1153 1278 1202 1138 940 957 910 695 558 307 74 60 30 88 173 92 58 96 109 51 16 1 6 5 12 22 14 59 76 59 21 12 0
22 81 175 319 625 795 1179 1032 642 649 953 951 1043 1100 1032 893 845 635 508 362 332 298 156 106 119 89 27 33 82 97 23 1 5 11 14 28 15 8 83 71 30 26 14
11 11 4 154 174 363 791 706 872 737 663 913 1041 837 1000 1704 815 719 587 436 85 410 301 237 142 125 62 49 64 48 60 0 5 0 0 7 18 26 54 64 72 36 31
0 0 0 6 135 274 398 398 440 358 494 398 640 854 648 746 604 592 610 356 261 429 452 276 118 83 61 52 45 35 38 0 0 2 0 7 18 3 53 57 59 58 54
0 0 0 2 2 17 2 33 103 101 243 233 340 501 369 385 274 222 184 212 182 291 225 109 75 38 178 22 64 44 31 0 0 9 0 2 3 4 4 11 43 48 48
5 0 0 0 0 0 0 4 2 34 94 145 95 213 151 185 206 130 77 98 114 127 114 72 74 168 41 12 99 33 37 0 0 0 0 0 1 5 11 11 2 24 49
0 0 0 0 0 0 0 0 1 6 25 4 0 31 39 96 99 72 71 70 85 86 76 191 46 50 13 19 94 18 26 0 0 0 0 0 1 11 10 4 2 27 34
0 0 0 0 0 0 0 0 0 0 0 0 0 0 1 1 4 0 12 35 58 42 65 52 43 87 40 31 24 50 15 3 3 2 0 2 9 5 4 15 13 1 18
0 0 0 0 0 0 0 0 0 0 0 0 0 0 0 0 0 0 1 7 0 11 8 14 32 38 9 42 9 7 13 35 23 33 12 12 12 27 2 1 4 7 7
0 0 0 0 0 0 0 0 0 0 0 0 0 0 0 0 0 0 0 0 0 0 0 4 0 0 35 42 10 10 0 8 17 36 10 2 9 35 11 6 2 4 1
0 0 0 0 0 0 0 0 0 0 0 0 0 0 0 0 0 0 0 0 0 0 0 3 0 0 10 28 22 7 36 36 42 11 14 6 34 34 14 9 1 21 5

GFSMA_con_mucape_135.txt.gz
CAPE
1569 1777 1526 1476 1534 1522 1398 1093 615 459 573 760 806 874 624 532 512 435 215 81 247 696 983 685 553 364 235 243 176 209 209 213 210 155 131 64 38 34 36 30 30 28 30
1752 1925 1685 1700 1706 1655 1439 1444 1101 718 658 801 953 879 846 736 584 475 318 296 265 487 790 863 608 395 235 136 228 203 266 286 221 250 165 81 28 33 31 36 34 32 30
1637 2015 1775 1867 1866 1759 1575 1340 1286 1083 1049 862 1020 874 603 883 645 572 531 384 265 465 553 565 762 752 499 216 319 207 290 317 246 263 199 121 17 6 28 33 20 29 23
1699 1928 1895 1842 1903 1797 1682 1447 1459 1265 1165 1074 844 862 942 740 672 655 619 419 240 326 412 425 575 515 375 513 481 216 168 275 343 289 210 147 29 2 31 33 32 26 26
2035 1809 1983 1818 2001 1904 1747 1528 1466 1365 1087 1012 1023 1083 831 308 555 637 629 463 356 278 199 306 273 307 270 359 657 394 217 318 268 427 240 120 43 3 0 26 33 33 25
1983 1876 2065 2086 1960 2005 1808 1821 1643 1413 1081 992 1066 990 825 540 495 575 578 578 464 373 302 172 91 67 136 249 303 626 426 291 333 366 316 155 57 14 5 0 21 33 29
2219 2035 2130 2113 1967 1787 1873 1928 1670 1501 1421 1351 1193 1011 907 679 488 508 617 521 513 390 294 221 164 150 86 30 107 451 468 362 317 472 408 174 74 0 3 1 21 35 25
1667 1925 1804 2092 2062 1965 1706 1947 1927 1817 1772 1519 1139 980 978 919 833 738 609 559 424 394 240 195 213 196 59 43 51 118 519 703 633 566 298 168 51 18 2 8 13 31 40
1471 1343 1314 1782 2105 2031 1897 1812 1745 1728 1716 1544 1235 747 622 554 525 756 648 494 455 440 405 219 203 187 126 80 59 40 69 172 192 321 277 187 45 11 11 21 11 23 38
1315 1588 1313 1509 1963 1827 1719 1802 1553 1194 908 1065 1020 874 409 461 160 226 667 609 569 709 697 568 385 257 238 171 134 87 58 33 82 93 186 202 94 33 8 1 25 22 28
1216 1282 1446 1278 1678 1454 1643 1069 1318 1198 1438 758 584 721 903 769 722 809 500 743 648 660 642 492 517 384 272 269 204 123 80 66 47 47 78 114 138 61 29 35 21 40 28
800 1187 1217 1372 1596 1415 1288 990 757 863 1019 1135 685 409 532 658 508 419 647 488 575 532 429 311 447 483 341 227 181 141 117 84 62 62 36 51 68 82 60 39 19 89 58
458 200 111 1008 966 1239 1167 1129 908 1055 1225 825 790 459 451 504 291 358 397 322 176 313 303 249 202 331 364 276 188 125 117 95 75 75 61 37 59 42 32 32 38 104 99
164 310 0 352 513 564 1108 1172 977 1258 1306 1056 944 657 562 508 486 401 461 340 203 206 204 213 208 213 150 116 117 150 146 129 89 53 51 13 47 52 46 38 15 68 99
200 52 1 41 168 14 112 566 861 1070 1188 1074 1183 987 719 658 692 684 542 580 249 93 96 99 81 139 162 194 168 178 121 59 53 56 38 22 6 37 49 30 23 16 76
5 46 0 11 65 0 0 86 361 544 818 829 875 1046 944 876 768 749 711 591 323 155 78 39 24 107 144 137 161 165 124 69 34 20 7 15 0 11 43 44 5 8 35
5 0 6 2 31 68 219 257 199 281 582 795 655 643 704 617 761 718 659 580 338 262 178 58 63 80 110 85 97 126 96 50 8 2 8 9 0 4 14 49 19 22 33
32 47 0 3 58 80 125 164 273 557 506 582 271 349 438 465 386 461 537 561 456 396 238 193 11 0 74 122 72 77 71 54 32 0 0 0 0 0 10 26 9 40 24
24 0 0 7 48 76 65 78 104 184 279 187 51 88 233 144 236 355 293 228 271 319 279 120 3 44 85 124 57 41 20 26 39 31 5 0 0 0 13 26 15 7 44
0 0 0 4 1 0 3 5 12 74 58 65 71 32 41 29 64 189 104 149 161 172 145 162 121 211 174 102 107 93 65 69 51 46 16 0 0 0 0 1 25 22 3
0 0 0 0 0 0 0 0 0 0 0 0 1 10 15 11 30 9 4 9 99 50 150 127 82 89 98 63 70 48 43 68 30 45 24 0 0 4 0 0 0 4 11
0 0 0 0 0 0 0 0 0 0 0 0 0 0 12 1 12 1 0 4 0 0 0 17 84 50 24 19 51 35 37 32 49 3 0 0 2 3 0 0 0 6 5
0 0 0 0 0 0 0 0 0 0 0 0 0 0 0 0 0 0 0 0 0 0 0 0 1 2 2 27 19 23 0 12 7 0 5 10 0 0 0 0 0 1 4
0 0 0 0 0 0 0 0 0 0 0 0 0 0 0 0 0 0 0 0 0 0 0 0 0 0 6 9 5 32 13 5 12 36 17 0 0 0 0 0 3 3 1
0 0 0 0 0 0 0 0 0 0 0 0 0 0 0 0 0 0 0 0 0 0 0 0 0 0 1 4 3 1 9 7 2 10 1 0 5 0 5 3 10 5 10
0 0 0 0 0 0 0 0 0 0 0 0 0 0 0 0 0 0 0 0 0 0 0 0 0 0 0 0 0 0 16 19 2 43 5 1 8 0 22 14 5 21 13

GFSMA_con_mucape_138.txt.gz
CAPE
1585 1554 1397 1240 1287 1258 1276 1153 758 422 415 408 689 770 449 444 576 499 467 508 784 1043 1077 881 524 463 570 484 301 373 256 210 284 196 100 43 39 11 29 29 26 25 46
1462 1499 1481 1282 1157 1220 1239 1192 935 482 336 367 486 872 814 658 569 520 424 441 433 598 916 995 867 729 629 341 314 199 204 242 261 175 124 87 18 3 5 32 26 37 37
1435 1235 1469 1378 1358 1222 1317 1264 989 732 544 336 578 738 829 690 647 604 426 329 323 315 664 741 860 852 726 514 427 216 247 207 190 276 184 142 36 0 0 5 28 31 39
1222 1187 1264 1599 1440 1450 1342 1304 1117 999 932 627 656 870 910 767 834 701 545 377 278 191 440 534 536 566 603 664 427 214 126 208 246 257 197 140 93 33 0 0 9 25 37
1293 1194 1359 1447 1648 1514 1481 1484 1088 1076 1092 1000 906 846 893 631 679 658 653 621 329 250 327 421 500 468 337 294 514 466 260 172 301 369 184 161 75 28 9 1 0 23 33
1077 1081 1335 1534 1659 1595 1559 1510 1254 1113 1041 1022 977 966 823 772 242 503 690 658 390 278 248 275 272 302 492 262 344 581 576 440 316 348 359 190 113 24 0 0 0 7 28
357 920 1151 1523 1676 1606 1578 1555 1420 1147 1143 940 875 825 777 815 557 309 482 619 583 439 375 342 251 174 190 344 214 576 590 573 534 432 523 335 143 9 1 0 0 0 11
412 448 702 1244 1421 1495 1537 1603 1501 1225 1116 1073 751 812 660 651 727 608 540 499 554 541 482 340 205 172 129 82 103 203 660 828 844 680 454 274 107 37 8 0 3 1 14
410 194 451 1098 1363 1393 1449 1566 1378 1208 1232 1273 947 566 312 460 451 719 719 551 614 621 473 357 305 262 219 144 117 80 101 219 354 549 428 212 153 84 12 2 0 5 13
297 297 341 648 968 1226 1194 1620 1241 1224 1344 1163 1148 865 425 209 181 32 641 770 710 671 566 429 373 306 249 213 172 75 64 82 134 206 337 262 167 139 46 4 5 11 16
2 216 298 381 694 977 1290 1318 1309 1217 1322 989 973 1080 792 476 236 343 228 528 604 615 598 516 393 388 383 368 293 184 124 98 78 90 126 153 188 148 66 22 11 10 0
12 101 53 226 396 385 890 1111 1351 1279 1261 1140 983 961 752 723 570 421 506 498 497 537 560 524 516 609 611 514 464 272 199 185 170 68 59 39 68 101 87 65 33 17 5
31 0 103 244 141 2 283 769 1225 1240 1149 992 621 564 805 713 460 441 391 403 392 480 449 510 557 519 315 391 403 334 225 217 168 82 67 43 31 40 50 61 50 54 24
30 0 1 199 209 163 30 597 712 783 1051 1077 667 556 744 510 414 360 398 420 208 163 195 341 285 380 294 199 357 322 238 184 167 99 96 61 43 23 61 89 54 46 48
68 0 1 100 73 71 0 31 462 472 466 440 544 422 447 664 514 312 346 381 396 150 47 97 173 177 215 173 119 177 179 223 163 95 134 115 61 32 23 62 75 61 54
98 94 34 29 33 55 20 7 46 104 196 323 181 209 412 454 565 555 554 431 384 280 208 151 82 52 94 81 99 124 128 127 71 96 153 133 95 35 15 20 62 92 91
114 36 20 45 9 14 9 21 29 10 14 10 0 120 18 375 519 446 488 370 373 368 351 216 69 2 72 41 42 69 110 167 118 112 131 122 68 33 8 15 19 67 102
127 34 83 38 12 28 35 0 19 38 33 18 50 17 214 148 200 335 409 77 121 108 107 67 107 110 85 70 0 8 6 117 123 143 108 83 39 3 0 7 8 13 24
46 0 2 7 37 16 1 0 0 11 0 42 28 39 91 109 136 205 264 67 98 75 63 57 16 95 63 84 35 1 17 60 63 92 117 49 13 30 3 0 4 10 20
5 1 14 20 3 0 0 0 0 0 26 14 6 35 23 15 3 13 3 2 2 2 39 17 7 26 14 57 41 61 46 2 28 72 121 87 51 29 22 0 0 7 9
2 3 8 12 3 0 0 0 0 0 0 0 0 0 0 0 0 0 0 0 0 0 1 0 2 6 5 7 12 38 35 35 8 4 47 55 40 29 24 6 0 0 0
0 0 0 0 0 0 0 0 0 0 0 0 0 0 0 0 0 0 0 0 0 0 0 0 2 0 0 0 0 20 10 48 0 29 41 16 13 16 14 0 0 0 0
0 0 0 0 0 0 0 0 0 0 0 0 0 0 0 0 0 0 0 0 0 0 0 0 0 0 0 0 0 0 2 0 3 23 45 0 3 0 0 0 0 0 0
0 0 0 0 0 0 0 0 0 0 0 0 0 0 0 0 0 0 0 0 0 0 0 0 0 0 0 0 0 0 0 0 0 1 20 0 6 2 5 3 0 0 0
0 0 0 0 0 0 0 0 0 0 0 0 0 0 0 0 0 0 0 0 0 0 0 0 0 0 0 0 0 0 0 0 0 0 2 2 1 1 0 5 0 0 0
0 0 0 0 0 0 0 0 0 0 0 0 0 0 0 0 0 0 0 0 0 0 0 0 0 0 0 0 0 0 0 0 0 0 2 0 4 2 1 2 13 7 3